Warning: Javascript must be enabled to use all the features on this page!


Page Loading - Please Wait...

Click to hideNews Bulletins

Streamflow Measurements for the Nation


USGS 11455165 MINER SLOUGH A HWY 84 BRIDGE


Solano County, California
Hydrologic Unit Code 18020163
Latitude  38°17'30", Longitude 121°37'51" NAD83
Gage datum 0 feet above NAVD88
Output formats
HTML table with channel data
HTML table without channel data
Tab-separated data with channel data
Tab-separated data without channel data
Graph of data
Reselect output format
Meas.
Number
  Date       Time Time
Datum
Measurement
Used?
  Who Measuring
Agency
Stream
flow
(ft3/s)
Gage
Height
(ft)
GH
Change
(ft)
Meas.
Duration
(hr)
Meas.
Rated
  Control Flow
Adjust.
Code
 
11432019-07-18 10:40:03PSTYesNS,TD,BGUSGS39704.52 Poor NONE
11422019-07-18 10:34:57PSTYesNS,TD,BGUSGS38304.56 Poor NONE
11412019-07-18 10:30:22PSTYesNS,TD,BGUSGS38904.59 Poor NONE
11402019-07-18 10:25:45PSTYesNS,TD,BGUSGS37804.63 Poor NONE
11392019-07-18 10:21:07PSTYesNS,TD,BGUSGS38404.67 Poor NONE
11382019-07-18 10:16:59PSTYesNS,TD,BGUSGS37904.71 Poor NONE
11372019-06-25 10:20:43PSTYesZH,BG,TDUSGS16205.35 PoorUnspecifedNONE
11362019-06-25 10:17:13PSTYesZH,BG,TDUSGS15705.35 PoorUnspecifedNONE
11352019-06-25 10:13:05PSTYesZH,BG,TDUSGS16005.35 PoorUnspecifedNONE
11342019-06-25 10:09:44PSTYesZH,BG,TDUSGS14605.36 PoorUnspecifedNONE
11332019-06-25 10:04:31PSTYesZH,BG,TDUSGS16105.35 PoorUnspecifedNONE
11322019-05-01 13:12:02PSTYesZH, BTGUSGS56206.48 Fair NONE
11312019-05-01 13:08:41PSTYesZH, BTGUSGS55006.46 Fair NONE
11302019-05-01 13:05:11PSTYesZH, BTGUSGS54306.44 Fair NONE
11292019-05-01 13:01:38PSTYesZH, BTGUSGS57006.42 Fair NONE
11282019-05-01 12:58:31PSTYesZH, BTGUSGS56306.40 Fair NONE
11272019-05-01 12:55:15PSTYesZH, BTGUSGS56706.38 Fair NONE
11262019-02-28 13:28:44PSTYesJH/MPUSGS1260010.85 Fair NONE
11252019-02-28 13:26:35PSTYesJH/MPUSGS1240010.84 Fair NONE
11242019-02-28 13:24:16PSTYesJH/MPUSGS1200010.83 Fair NONE
11232019-02-28 13:21:48PSTYesJH/MPUSGS1250010.84 Fair NONE
11222019-02-28 13:19:22PSTYesJH/MPUSGS1230010.84 Fair NONE
11212019-02-28 13:16:52PSTYesJH/MPUSGS1260010.84 Fair NONE
11202019-02-28 13:14:05PSTYesJH/MPUSGS1270010.84 Fair NONE
11192019-02-28 13:10:50PSTYesJH/MPUSGS1260010.85 Fair NONE
11182019-01-30 14:33PSTYesBTG/NSUSGS32706.70 Fair NONE
11172019-01-30 14:27:01PSTYesBTG/NSUSGS32806.73 Fair NONE
11162019-01-30 14:21:03PSTYesBTG/NSUSGS30806.77 Fair NONE
11152019-01-30 14:15:58PSTYesBTG/NSUSGS31206.79 Fair NONE
11142019-01-30 14:11:59PSTYesBTG/NSUSGS30906.81 Fair NONE
11132019-01-30 14:08:18PSTYesBTG/NSUSGS29806.83 Fair NONE
11122018-10-30 10:29:14PSTYesBTG/MIUSGS-12204.98 Poor NONE
11112018-10-30 10:25:02PSTYesBTG/MIUSGS-13004.98 Fair NONE
11102018-10-30 10:20:14PSTYesBTG/MIUSGS-13504.97 Fair NONE
11092018-10-30 10:16:03PSTYesBTG/MIUSGS-13204.96 Fair NONE
11082018-10-30 10:12:18PSTYesBTG/MIUSGS-14704.95 Fair NONE
11072018-10-30 10:07:42PSTYesBTG/MIUSGS-14704.94 Fair NONE
11062018-09-07 13:04:19PSTYesBG/MP/TDUSGS19904.72 Fair NONE
11052018-09-07 13:01:57PSTYesBG/MP/TDUSGS19904.70 Fair NONE
11042018-09-07 12:59:24PSTYesBG/MP/TDUSGS20304.68 Fair NONE
11032018-09-07 12:57:02PSTYesBG/MP/TDUSGS21704.66 Fair NONE
11022018-09-07 12:54:37PSTYesBG/MP/TDUSGS21104.64 Fair NONE
11012018-09-07 12:51:49PSTYesBG/MP/TDUSGS20704.61 Fair NONE
11002018-07-17 10:20:51PSTYesALC/BTG/TNDUSGS28605.49 Fair NONE
10992018-07-17 10:18:06PSTYesALC/BTG/TNDUSGS29405.51 Fair NONE
10982018-07-17 10:15:25PSTYesALC/BTG/TNDUSGS28105.53 Fair NONE
10972018-07-17 10:12:43PSTYesALC/BTG/TNDUSGS30205.55 Fair NONE
10962018-07-17 10:09:37PSTYesALC/BTG/TNDUSGS27105.57 Fair NONE
10952018-07-17 10:07:05PSTYesALC/BTG/TNDUSGS28005.59 Fair NONE
10942018-06-07 11:37:16PSTYesBG, MIUSGS11804.84 Fair NONE
10932018-06-07 11:34:11PSTYesBG, MIUSGS12104.86 Fair NONE
10922018-06-07 11:30:50PSTYesBG, MIUSGS11804.87 Fair NONE
10912018-06-07 11:27:51PSTYesBG, MIUSGS11504.88 Fair NONE
10902018-06-07 11:23:08PSTYesBG, MIUSGS11304.89 Fair NONE
10892018-06-07 11:20:11PSTYesBG, MIUSGS11404.90 Fair NONE
10882018-03-28 11:17:15PSTYesCH,BGUSGS58305.85 Fair NONE
10872018-03-28 11:13:04PSTYesCH,BGUSGS56805.82 Fair NONE
10862018-03-28 11:08:55PSTYesCH,BGUSGS51305.79 Fair NONE
10852018-03-28 11:04:53PSTYesCH,BGUSGS55605.76 Fair NONE
10842018-03-28 11:01:15PSTYesCH,BGUSGS57205.73 Fair NONE
10832018-03-28 10:58:05PSTYesCH,BGUSGS58205.71 Fair NONE
10822018-01-18 13:21:35PSTYesTV/BGUSGS22904.77 Fair NONE
10812018-01-18 13:16:47PSTYesTV/BGUSGS23204.73 Fair NONE
10802018-01-18 13:12:27PSTYesTV/BGUSGS24104.68 Fair NONE
10792018-01-18 13:08:27PSTYesTV/BGUSGS25204.65 Fair NONE
10782018-01-18 13:04:33PSTYesTV/BGUSGS24904.61 Fair NONE
10772018-01-18 13:00:07PSTYesTV/BGUSGS25704.58 Fair NONE
10762017-09-07 12:48:13PSTYesTV,BGUSGS39204.00 Fair NONE
10752017-09-07 12:43:32PSTYesTV,BGUSGS39304.00 Fair NONE
10742017-09-07 12:38:08PSTYesTV,BGUSGS39504.00 Fair NONE
10732017-09-07 12:32:17PSTYesTV,BGUSGS40004.00 Fair NONE
10722017-09-07 12:26:52PSTYesTV,BGUSGS40204.01 Fair NONE
10712017-09-07 12:22:22PSTYesTV,BGUSGS40004.03 Fair NONE
10702017-07-06 13:37:21PSTYesBTG/WFUSGS15204.31 Fair NONE
10692017-07-06 13:33:40PSTYesBTG/WFUSGS15504.28 Fair NONE
10682017-07-06 13:30:06PSTYesBTG/WFUSGS15604.25 Fair NONE
10672017-07-06 13:26:18PSTYesBTG/WFUSGS16104.21 Fair NONE
10662017-07-06 13:22:25PSTYesBTG/WFUSGS15704.18 Fair NONE
10652017-07-06 13:18:15PSTYesBTG/WFUSGS16204.14 Fair NONE
10642017-05-16 13:21:50PSTYesTV/BGUSGS83707.05 Poor NONE
10632017-05-16 13:17:52PSTYesTV/BGUSGS84507.06 Fair NONE
10622017-05-16 13:11:50PSTYesTV/BGUSGS82207.08 Fair NONE
10612017-05-16 13:07:12PSTYesTV/BGUSGS77507.09 Fair NONE
10602017-05-16 13:02:24PSTYesTV/BGUSGS81907.11 Fair NONE
10592017-05-16 12:57:48PSTYesTV/BGUSGS80807.12 Fair NONE
10582017-05-16 12:53:28PSTYesTV/BGUSGS80707.14 Fair NONE
10572017-05-16 12:49:54PSTYesTV/BGUSGS79307.14 Fair NONE
10562017-03-02 14:40:38PSTYesTV/BGUSGS115009.67 FairUnspecifedNONE
10552017-03-02 14:36:26PSTYesTV/BGUSGS114009.67 FairUnspecifedNONE
10542017-03-02 14:32:13PSTYesTV/BGUSGS113009.67 FairUnspecifedNONE
10532017-03-02 14:28:24PSTYesTV/BGUSGS112009.58 FairUnspecifedNONE
10522017-03-02 14:24:26PSTYesTV/BGUSGS1090010.09 FairUnspecifedNONE
10512017-03-02 14:20:28PSTYesTV/BGUSGS1110011.78 FairUnspecifedNONE
10502017-02-13 16:00:24PSTYesCV, RJUSGS1140012.99 Unspecified NONE
10492017-02-13 15:56:09PSTYesCV, RJUSGS1070012.99 Unspecified NONE
10482017-02-13 15:51:45PSTYesCV, RJUSGS1130012.98 Unspecified NONE
10472017-02-13 15:47:24PSTYesCV, RJUSGS1040012.97 Unspecified NONE
10462017-01-04 14:54:36PSTYestv,bgUSGS48205.44 Fair NONE
10452017-01-04 14:51PSTYestv,bgUSGS48505.45 Fair NONE
10442017-01-04 14:47:42PSTYestv,bgUSGS47805.47 Fair NONE
10432017-01-04 14:44:09PSTYestv,bgUSGS48805.48 Fair NONE
10422017-01-04 14:40:19PSTYestv,bgUSGS46005.51 Fair NONE
10412017-01-04 14:36:56PSTYestv,bgUSGS47805.52 Fair NONE
10402016-11-15 13:45:35PSTYestv,ndUSGS3364.98 Good NONE
10392016-11-15 13:41:30PSTYestv,ndUSGS4584.94 Good NONE
10382016-11-15 13:37:39PSTYestv,ndUSGS5194.91 Good NONE
10372016-11-15 13:33:10PSTYestv,ndUSGS6394.87 Good NONE
10362016-11-15 13:27:47PSTYestv,ndUSGS6854.83 Good NONE
10352016-11-15 13:24:17PSTYestv,ndUSGS7184.80 Good NONE
10342016-08-10 11:25:27PSTYesNV, BFUSGS16805.26 Fair NONE
10332016-08-10 11:21:51PSTYesNV, BFUSGS16005.26 Fair NONE
10322016-08-10 11:13:49PSTYesNV, BFUSGS16005.28 Fair NONE
10312016-08-10 11:07:24PSTYesNV, BFUSGS16105.29 Fair NONE
10302016-08-10 11:00:32PSTYesNV, BFUSGS15705.31 Fair NONE
10292016-08-10 10:55:08PSTYesNV, BFUSGS15305.31 Fair NONE
10282016-08-10 10:50:29PSTYesNV, BFUSGS13405.31 Fair NONE
10272016-08-10 10:44:45PSTYesNV, BFUSGS13205.31 Fair NONE
10262016-07-18 11:10:37PSTYesND, BFUSGS34703.59 Fair NONE
10252016-07-18 11:03:34PSTYesND, BFUSGS35703.59 Fair NONE
10242016-07-18 10:56:25PSTYesND, BFUSGS35203.66 Fair NONE
10232016-07-18 10:50:19PSTYesND, BFUSGS35103.66 Fair NONE
10222016-07-18 10:36PSTYesND, BFUSGS38203.74 Fair NONE
10212016-07-18 10:30:27PSTYesND, BFUSGS37203.79 Fair NONE
10202016-03-08 13:21:43PSTYesTM RJUSGS69806.97 Fair NONE
10192016-03-08 13:17:34PSTYesTM RJUSGS72206.94 Fair NONE
10182016-03-08 13:13:09PSTYesTM RJUSGS69906.91 Fair NONE
10172016-03-08 13:08:37PSTYesTM RJUSGS73306.86 Fair NONE
10162016-03-08 13:04:20PSTYesTM RJUSGS68506.84 Fair NONE
10152016-03-08 12:59:39PSTYesTM RJUSGS71306.80 Fair NONE
10142016-01-21 16:43PSTYesBS/BLUSGS6270 Unspecified NONE
10132016-01-21 16:38PSTYesBS/BLUSGS6030 Unspecified NONE
10122016-01-21 16:33PSTYesBS/BLUSGS6330 Unspecified NONE
10112016-01-21 16:28PSTYesBS/BLUSGS6190 Unspecified NONE
10102016-01-21 16:24PSTYesBS/BLUSGS5970 Unspecified NONE
10092016-01-21 16:20PSTYesBS/BLUSGS5630 Unspecified NONE
10082016-01-21 15:03PSTYesBS/BLUSGS5310 Unspecified NONE
10072016-01-21 14:59PSTYesBS/BLUSGS5460 Unspecified NONE
10062016-01-21 14:53PSTYesBS/BLUSGS5160 Unspecified NONE
10052016-01-21 14:50PSTYesBS/BLUSGS5070 Unspecified NONE
10042016-01-21 14:42PSTYesBS/BLUSGS5350 Unspecified NONE
10032016-01-21 14:37PSTYesBS/BLUSGS5050 Unspecified NONE
10022016-01-21 14:32PSTYesBS/BLUSGS5460 Unspecified NONE
10012016-01-21 14:22PSTYesBS/BLUSGS4840 Unspecified NONE
10002016-01-21 14:16PSTYesBS/BLUSGS5070 Unspecified NONE
9992016-01-21 14:11PSTYesBS/BLUSGS4910 Unspecified NONE
9982015-07-21 12:14PSTYesET/ADUSGS2940 Unspecified NONE
9972015-07-21 12:08PSTYesET/ADUSGS2940 Unspecified NONE
9962015-07-21 12:01PSTYesET/ADUSGS2840 Unspecified NONE
9952015-07-21 11:56PSTYesET/ADUSGS3030 Unspecified NONE
9942015-07-21 11:49PSTYesET/ADUSGS2910 Unspecified NONE
9932015-07-21 11:39PSTYesET/ADUSGS2900 Unspecified NONE
9922015-03-02 16:40PSTYesDA/CHUSGS1440 UnspecifiedDebrisModerateNONE
9912015-03-02 16:36PSTYesDA/CHUSGS1550 UnspecifiedDebrisModerateNONE
9902015-03-02 16:32PSTYesDA/CHUSGS1000 PoorDebrisModerateNONE
9892015-03-02 16:28PSTYesDA/CHUSGS1440 PoorDebrisModerateNONE
9882015-03-02 16:18PSTYesDA/CHUSGS762 UnspecifiedDebrisModerateNONE
9872015-03-02 16:14PSTYesDA/CHUSGS509 UnspecifiedDebrisModerateNONE
9862015-03-02 16:10PSTYesDA/CHUSGS354 UnspecifiedDebrisModerateNONE
9852015-03-02 16:06PSTYesDA/CHUSGS237 UnspecifiedDebrisModerateNONE
9842015-03-02 16:01PSTYesDA/CHUSGS102 UnspecifiedDebrisModerateNONE
9832015-03-02 15:55PSTYesDA/CHUSGS-63.7 UnspecifiedDebrisModerateNONE
9822015-03-02 15:51PSTYesDA/CHUSGS-190 UnspecifiedDebrisModerateNONE
9812015-03-02 15:44PSTYesDA/CHUSGS-413 UnspecifiedDebrisModerateNONE
9802015-03-02 15:40PSTYesDA/CHUSGS-497 UnspecifiedDebrisModerateNONE
9792015-03-02 15:34PSTYesDA/CHUSGS-681 UnspecifiedDebrisModerateNONE
9782015-03-02 15:28PSTYesDA/CHUSGS-676 UnspecifiedDebrisModerateNONE
9772015-03-02 15:22PSTYesDA/CHUSGS-742 UnspecifiedDebrisModerateNONE
9762015-03-02 15:11PSTYesDA/CHUSGS-777 UnspecifiedDebrisModerateNONE
9752015-03-02 15:04PSTYesDA/CHUSGS-776 UnspecifiedDebrisModerateNONE
9742015-03-02 14:58PSTYesDA/CHUSGS-861 UnspecifiedDebrisModerateNONE
9732015-03-02 14:51PSTYesDA/CHUSGS-874 UnspecifiedDebrisModerateNONE
9722015-03-02 14:45PSTYesDA/CHUSGS-862 UnspecifiedDebrisModerateNONE
9712015-03-02 13:41PSTNo
9702015-03-02 13:36PSTNo
9692015-03-02 13:31PSTNo
9682015-03-02 13:22PSTNo
9672015-03-02 13:15PSTYesDA/CHUSGS32.7 UnspecifiedDebrisModerateNONE
9662015-03-02 13:09PSTYesDA/CHUSGS158 UnspecifiedDebrisModerateNONE
9652015-03-02 13:02PSTYesDA/CHUSGS246 UnspecifiedDebrisModerateNONE
9642015-03-02 12:55PSTYesDA/CHUSGS276 UnspecifiedDebrisModerateNONE
9632015-03-02 12:52PSTYesDA/CHUSGS428 UnspecifiedDebrisModerateNONE
9622015-03-02 12:47PSTYesDA/CHUSGS455 UnspecifiedDebrisModerateNONE
9612015-03-02 12:43PSTYesDA/CHUSGS464 UnspecifiedDebrisModerateNONE
9602015-03-02 12:39PSTYesDA/CHUSGS533 UnspecifiedDebrisModerateNONE
9592015-03-02 12:35PSTYesDA/CHUSGS589 UnspecifiedDebrisModerateNONE
9582015-03-02 12:31PSTYesDA/CHUSGS717 UnspecifiedDebrisModerateNONE
9572015-03-02 12:10PSTYesDA/CHUSGS957 UnspecifiedDebrisModerateNONE
9562015-03-02 12:05PSTYesDA/CHUSGS1010 UnspecifiedDebrisModerateNONE
9552015-03-02 12:00PSTYesDA/CHUSGS1050 UnspecifiedDebrisModerateNONE
9542015-03-02 11:56PSTYesDA/CHUSGS1160 UnspecifiedDebrisModerateNONE
9532015-03-02 11:50PSTYesDA/CHUSGS1160 UnspecifiedDebrisModerateNONE
9522015-03-02 11:45PSTYesDA/CHUSGS1210 UnspecifiedDebrisModerateNONE
9512015-03-02 11:41PSTYesDA/CHUSGS1220 UnspecifiedDebrisModerateNONE
9502015-03-02 11:36PSTYesDA/CHUSGS1320 UnspecifiedDebrisModerateNONE
9492015-03-02 11:33PSTYesDA/CHUSGS1400 UnspecifiedDebrisModerateNONE
9482015-03-02 11:29PSTYesDA/CHUSGS1430 UnspecifiedDebrisModerateNONE
9472015-03-02 11:26PSTYesDA/CHUSGS1500 UnspecifiedDebrisModerateNONE
9462015-03-02 11:21PSTYesDA/CHUSGS1490 UnspecifiedDebrisModerateNONE
9452015-03-02 11:17PSTYesDA/CHUSGS1460 UnspecifiedDebrisModerateNONE
9442015-03-02 11:13PSTYesDA/CHUSGS1630 UnspecifiedDebrisModerateNONE
9432015-03-02 11:09PSTYesDA/CHUSGS1570 UnspecifiedDebrisModerateNONE
9422014-08-26 10:40PSTYesYESUSGS3340 Unspecified NONE
9412014-08-26 10:34PSTYesYESUSGS3290 Unspecified NONE
9402014-08-26 10:29PSTYesYESUSGS3280 Unspecified NONE
9392014-08-26 10:23PSTYesYESUSGS3330 Unspecified NONE
9382014-08-26 10:16PSTYesYESUSGS3280 Unspecified NONE
9372014-08-26 10:08PSTYesYESUSGS3350 Unspecified NONE
9362014-08-26 10:01PSTYesYESUSGS3180 Unspecified NONE
9352014-08-26 09:53PSTYesYESUSGS3290 Unspecified NONE
9342014-08-26 09:46PSTYesYESUSGS3230 Unspecified NONE
9332014-08-26 09:37PSTYesYESUSGS3200 Unspecified NONE
9322014-08-26 09:11PSTYesYESUSGS3150 Unspecified NONE
9312011-12-22 12:40PSTYesYESUSGS1110 Unspecified NONE
9302011-12-22 12:36PSTYesYESUSGS1150 Unspecified NONE
9292011-12-22 12:30PSTYesYESUSGS1130 Unspecified NONE
9282011-12-22 12:15PSTYesYESUSGS1300 Unspecified NONE
9272011-12-22 12:06PSTYesYESUSGS1280 Unspecified NONE
9262011-12-22 11:56PSTYesYESUSGS1280 Unspecified NONE
9252011-03-29 11:44PSTYesYESUSGS11500 Unspecified NONE
9242011-03-29 11:40PSTYesYESUSGS10800 Unspecified NONE
9232011-03-29 11:37PSTYesYESUSGS11200 Unspecified NONE
9222011-03-29 11:34PSTYesYESUSGS11100 Unspecified NONE
9212010-11-30 15:33PSTYesYESUSGS3170 Unspecified NONE
9202010-11-30 15:27PSTYesYESUSGS3170 Unspecified NONE
9192010-11-30 15:23PSTYesYESUSGS3030 Unspecified NONE
9182010-11-30 15:15PSTYesYESUSGS3070 Unspecified NONE
9172010-11-30 14:51PSTYesYESUSGS2910 Unspecified NONE
9162010-11-30 14:46PSTYesYESUSGS2880 Unspecified NONE
9152010-11-30 14:41PSTYesYESUSGS2800 Unspecified NONE
9142010-11-30 14:36PSTYesYESUSGS2680 Unspecified NONE
9132010-11-30 14:32PSTYesYESUSGS2680 Unspecified NONE
9122010-11-30 14:27PSTYesYESUSGS2650 Unspecified NONE
9112010-11-30 14:06PSTYesYESUSGS2360 Unspecified NONE
9102010-11-30 14:01PSTYesYESUSGS2270 Unspecified NONE
9092010-11-30 13:57PSTYesYESUSGS2270 Unspecified NONE
9082010-11-30 13:52PSTYesYESUSGS2170 Unspecified NONE
9072010-11-30 13:48PSTYesYESUSGS2130 Unspecified NONE
9062010-11-30 13:42PSTYesYESUSGS1990 Unspecified NONE
9052010-11-30 13:38PSTYesYESUSGS1900 Unspecified NONE
9042010-11-30 13:33PSTYesYESUSGS1930 Unspecified NONE
9032010-11-30 13:29PSTYesYESUSGS1910 Unspecified NONE
9022010-11-30 13:24PSTYesYESUSGS1700 Unspecified NONE
9012010-11-30 13:22PSTYesYESUSGS1760 Unspecified NONE
9002010-11-30 13:18PSTYesYESUSGS1680 Unspecified NONE
8992010-11-30 13:15PSTYesYESUSGS1680 Unspecified NONE
8982010-11-30 13:10PSTYesYESUSGS1620 Unspecified NONE
8972010-11-30 13:06PSTYesYESUSGS1660 Unspecified NONE
8962010-10-05 17:28PSTYesYESUSGS2420 Unspecified NONE
8952010-10-05 17:24PSTYesYESUSGS2340 Unspecified NONE
8942010-10-05 17:20PSTYesYESUSGS2320 Unspecified NONE
8932010-10-05 17:16PSTYesYESUSGS2190 Unspecified NONE
8922010-10-05 17:12PSTYesYESUSGS2130 Unspecified NONE
8912010-10-05 17:08PSTYesYESUSGS2010 Unspecified NONE
8902010-10-05 16:53PSTYesYESUSGS1730 Unspecified NONE
8892010-10-05 16:49PSTYesYESUSGS1550 Unspecified NONE
8882010-10-05 16:46PSTYesYESUSGS1600 Unspecified NONE
8872010-10-05 16:42PSTYesYESUSGS1470 Unspecified NONE
8862010-10-05 16:38PSTYesYESUSGS1340 Unspecified NONE
8852010-10-05 16:34PSTYesYESUSGS1230 Unspecified NONE
8842010-10-05 16:31PSTYesYESUSGS1200 Unspecified NONE
8832010-10-05 16:28PSTYesYESUSGS1080 Unspecified NONE
8822010-10-05 16:25PSTYesYESUSGS1010 Unspecified NONE
8812010-10-05 16:22PSTYesYESUSGS924 Unspecified NONE
8802010-10-05 16:19PSTYesYESUSGS840 Unspecified NONE
8792010-10-05 16:16PSTYesYESUSGS688 Unspecified NONE
8782010-10-05 16:12PSTYesYESUSGS654 Unspecified NONE
8772010-10-05 16:09PSTYesYESUSGS499 Unspecified NONE
8762010-10-05 16:07PSTYesYESUSGS446 Unspecified NONE
8752010-10-05 16:02PSTYesYESUSGS337 Unspecified NONE
8742010-10-05 15:17PSTYesYESUSGS-208 Unspecified NONE
8732010-10-05 15:13PSTYesYESUSGS-231 Unspecified NONE
8722010-10-05 15:06PSTYesYESUSGS-260 Unspecified NONE
8712010-10-05 15:01PSTYesYESUSGS-159 Unspecified NONE
8702010-10-05 14:58PSTYesYESUSGS-94.8 Unspecified NONE
8692010-10-05 14:54PSTYesYESUSGS-84.1 Unspecified NONE
8682010-10-05 14:51PSTYesYESUSGS-95.5 Unspecified NONE
8672010-10-05 14:48PSTYesYESUSGS-10.4 Unspecified NONE
8662010-10-05 14:45PSTYesYESUSGS42.1 Unspecified NONE
8652010-10-05 14:36PSTYesYESUSGS28.7 Unspecified NONE
8642010-10-05 14:30PSTYesYESUSGS48.5 Unspecified NONE
8632010-10-05 14:26PSTYesYESUSGS86.6 Unspecified NONE
8622010-10-05 14:11PSTYesYESUSGS301 Unspecified NONE
8612010-10-05 14:08PSTYesYESUSGS334 Unspecified NONE
8602010-10-05 14:04PSTYesYESUSGS365 Unspecified NONE
8592010-10-05 14:00PSTYesYESUSGS360 Unspecified NONE
8582010-10-05 13:57PSTYesYESUSGS457 Unspecified NONE
8572010-10-05 13:53PSTYesYESUSGS509 Unspecified NONE
8562010-10-05 13:48PSTYesYESUSGS545 Unspecified NONE
8552010-10-05 13:43PSTYesYESUSGS679 Unspecified NONE
8542010-10-05 13:40PSTYesYESUSGS611 Unspecified NONE
8532010-10-05 13:36PSTYesYESUSGS645 Unspecified NONE
8522010-10-05 13:32PSTYesYESUSGS749 Unspecified NONE
8512010-10-05 13:28PSTYesYESUSGS783 Unspecified NONE
8502010-10-05 13:25PSTYesYESUSGS833 Unspecified NONE
8492010-10-05 13:19PSTYesYESUSGS929 Unspecified NONE
8482010-10-05 13:15PSTYesYESUSGS1010 Unspecified NONE
8472010-10-05 13:11PSTYesYESUSGS1020 Unspecified NONE
8462010-10-05 13:07PSTYesYESUSGS1100 Unspecified NONE
8452010-10-05 13:00PSTYesYESUSGS1090 Unspecified NONE
8442010-10-05 12:39PSTYesYESUSGS1330 Unspecified NONE
8432010-10-05 12:35PSTYesYESUSGS1360 Unspecified NONE
8422010-10-05 12:31PSTYesYESUSGS1420 Unspecified NONE
8412010-10-05 12:26PSTYesYESUSGS1400 Unspecified NONE
8402010-10-05 12:21PSTYesYESUSGS1460 Unspecified NONE
8392010-10-05 12:16PSTYesYESUSGS1490 Unspecified NONE
8382010-10-05 12:02PSTYesYESUSGS1610 Unspecified NONE
8372010-10-05 11:58PSTYesYESUSGS1670 Unspecified NONE
8362010-10-05 11:24PSTYesYESUSGS1970 Unspecified NONE
8352010-10-05 11:21PSTYesYESUSGS1970 Unspecified NONE
8342010-10-05 11:16PSTYesYESUSGS2080 Unspecified NONE
8332010-10-05 11:11PSTYesYESUSGS2080 Unspecified NONE
8322010-10-05 11:08PSTYesYESUSGS2090 Unspecified NONE
8312010-10-05 11:03PSTYesYESUSGS2120 Unspecified NONE
8302010-10-05 10:59PSTYesYESUSGS2280 Unspecified NONE
8292010-10-05 10:56PSTYesYESUSGS2220 Unspecified NONE
8282010-10-05 10:53PSTYesYESUSGS2330 Unspecified NONE
8272010-10-05 10:46PSTYesYESUSGS2290 Unspecified NONE
8262010-10-05 10:43PSTYesYESUSGS2350 Unspecified NONE
8252010-10-05 10:37PSTYesYESUSGS2500 Unspecified NONE
8242010-10-05 10:33PSTYesYESUSGS2360 Unspecified NONE
8232010-10-05 10:26PSTYesYESUSGS2520 Unspecified NONE
8222010-10-05 10:22PSTYesYESUSGS2570 Unspecified NONE
8212010-10-05 10:14PSTYesYESUSGS2600 Unspecified NONE
8202010-10-05 10:10PSTYesYESUSGS2750 Unspecified NONE
8192010-10-05 10:04PSTYesYESUSGS2780 Unspecified NONE
8182010-10-05 10:00PSTYesYESUSGS2880 Unspecified NONE
8172010-10-05 09:54PSTYesYESUSGS2960 Unspecified NONE
8162010-10-05 09:29PSTYesYESUSGS3190 Unspecified NONE
8152010-10-05 09:23PSTYesYESUSGS3300 Unspecified NONE
8142010-10-05 09:17PSTYesYESUSGS3390 Unspecified NONE
8132010-10-05 09:12PSTYesYESUSGS3380 Unspecified NONE
8122010-10-05 09:06PSTYesYESUSGS3340 Unspecified NONE
8112010-10-05 09:02PSTYesYESUSGS3420 Unspecified NONE
8102010-10-05 08:55PSTYesYESUSGS3440 Unspecified NONE
8092010-10-05 08:51PSTYesYESUSGS3330 Unspecified NONE
8082010-10-05 08:25PSTYesYESUSGS3510 Unspecified NONE
8072010-10-05 08:20PSTYesYESUSGS3540 Unspecified NONE
8062010-10-05 08:14PSTYesYESUSGS3410 Unspecified NONE
8052010-10-05 08:07PSTYesYESUSGS3420 Unspecified NONE
8042010-10-05 08:01PSTYesYESUSGS3440 Unspecified NONE
8032010-10-05 07:56PSTYesYESUSGS3430 Unspecified NONE
8022010-10-05 07:49PSTYesYESUSGS3400 Unspecified NONE
8012010-10-05 07:26PSTYesYESUSGS3400 Unspecified NONE
8002010-10-05 07:20PSTYesYESUSGS3480 Unspecified NONE
7992010-10-05 07:15PSTYesYESUSGS3370 Unspecified NONE
7982010-10-05 07:09PSTYesYESUSGS3360 Unspecified NONE
7972009-04-30 18:03PSTYesYESUSGS2800 Unspecified NONE
7962009-04-30 17:58PSTYesYESUSGS2800 Unspecified NONE
7952009-04-30 17:55PSTYesYESUSGS2830 Unspecified NONE
7942009-04-30 17:52PSTYesYESUSGS3040 Unspecified NONE
7932009-04-30 17:48PSTYesYESUSGS2940 Unspecified NONE
7922009-04-30 17:44PSTYesYESUSGS3040 Unspecified NONE
7912009-04-30 17:38PSTYesYESUSGS2860 Unspecified NONE
7902009-04-30 17:35PSTYesYESUSGS3000 Unspecified NONE
7892009-04-30 17:32PSTYesYESUSGS2980 Unspecified NONE
7882009-04-30 17:29PSTYesYESUSGS3140 Unspecified NONE
7872009-04-30 17:25PSTYesYESUSGS3160 Unspecified NONE
7862009-04-30 17:21PSTYesYESUSGS3170 Unspecified NONE
7852009-04-30 17:05PSTYesYESUSGS3340 Unspecified NONE
7842009-04-30 17:01PSTYesYESUSGS3360 Unspecified NONE
7832009-04-30 16:57PSTYesYESUSGS3380 Unspecified NONE
7822009-04-30 16:54PSTYesYESUSGS3380 Unspecified NONE
7812009-04-30 16:49PSTYesYESUSGS3360 Unspecified NONE
7802009-04-30 16:45PSTYesYESUSGS3270 Unspecified NONE
7792009-04-30 16:41PSTYesYESUSGS3360 Unspecified NONE
7782009-04-30 16:37PSTYesYESUSGS3570 Unspecified NONE
7772009-04-30 16:32PSTYesYESUSGS3610 Unspecified NONE
7762009-04-30 16:27PSTYesYESUSGS3500 Unspecified NONE
7752009-04-30 16:22PSTYesYESUSGS3520 Unspecified NONE
7742009-04-30 16:18PSTYesYESUSGS3480 Unspecified NONE
7732009-04-30 16:13PSTYesYESUSGS3440 Unspecified NONE
7722009-04-30 15:54PSTYesYESUSGS3760 Unspecified NONE
7712009-04-30 15:51PSTYesYESUSGS3640 Unspecified NONE
7702009-04-30 15:47PSTYesYESUSGS3630 Unspecified NONE
7692009-04-30 15:43PSTYesYESUSGS3560 Unspecified NONE
7682009-04-30 15:40PSTYesYESUSGS3610 Unspecified NONE
7672009-04-30 15:37PSTYesYESUSGS3690 Unspecified NONE
7662009-04-30 15:34PSTYesYESUSGS3540 Unspecified NONE
7652009-04-30 14:42PSTYesYESUSGS3710 Unspecified NONE
7642009-04-30 14:39PSTYesYESUSGS3620 Unspecified NONE
7632009-04-30 14:35PSTYesYESUSGS3660 Unspecified NONE
7622009-04-30 14:32PSTYesYESUSGS3790 Unspecified NONE
7612009-04-30 14:07PSTYesYESUSGS3680 Unspecified NONE
7602009-04-30 14:03PSTYesYESUSGS3460 Unspecified NONE
7592009-04-30 14:00PSTYesYESUSGS3570 Unspecified NONE
7582009-04-30 13:57PSTYesYESUSGS3630 Unspecified NONE
7572009-04-30 13:53PSTYesYESUSGS3590 Unspecified NONE
7562009-04-30 13:49PSTYesYESUSGS3590 Unspecified NONE
7552009-04-30 13:46PSTYesYESUSGS3560 Unspecified NONE
7542009-04-30 13:43PSTYesYESUSGS3660 Unspecified NONE
7532009-04-30 13:39PSTYesYESUSGS3410 Unspecified NONE
7522009-04-30 13:37PSTYesYESUSGS3560 Unspecified NONE
7512009-04-30 13:14PSTYesYESUSGS3420 Unspecified NONE
7502009-04-30 13:11PSTYesYESUSGS3440 Unspecified NONE
7492009-04-30 13:08PSTYesYESUSGS3420 Unspecified NONE
7482009-04-30 13:05PSTYesYESUSGS3470 Unspecified NONE
7472009-04-30 13:02PSTYesYESUSGS3440 Unspecified NONE
7462009-04-30 12:55PSTYesYESUSGS3680 Unspecified NONE
7452009-04-30 12:43PSTYesYESUSGS3420 Unspecified NONE
7442009-04-30 12:40PSTYesYESUSGS3350 Unspecified NONE
7432009-04-30 12:36PSTYesYESUSGS3450 Unspecified NONE
7422009-04-30 12:33PSTYesYESUSGS3420 Unspecified NONE
7412009-04-30 12:30PSTYesYESUSGS3250 Unspecified NONE
7402009-04-30 12:26PSTYesYESUSGS3330 Unspecified NONE
7392009-04-30 12:03PSTYesYESUSGS3380 Unspecified NONE
7382009-04-30 11:58PSTYesYESUSGS3320 Unspecified NONE
7372009-04-30 11:55PSTYesYESUSGS3230 Unspecified NONE
7362009-04-30 11:52PSTYesYESUSGS3200 Unspecified NONE
7352009-04-30 11:47PSTYesYESUSGS3130 Unspecified NONE
7342009-04-30 11:43PSTYesYESUSGS3230 Unspecified NONE
7332009-04-30 11:40PSTYesYESUSGS3270 Unspecified NONE
7322009-04-30 11:36PSTYesYESUSGS3160 Unspecified NONE
7312009-04-30 11:33PSTYesYESUSGS3110 Unspecified NONE
7302009-04-30 11:29PSTYesYESUSGS3060 Unspecified NONE
7292009-04-30 11:26PSTYesYESUSGS3140 Unspecified NONE
7282009-04-30 10:32PSTYesYESUSGS2680 Unspecified NONE
7272009-04-30 10:30PSTYesYESUSGS2660 Unspecified NONE
7262009-04-30 10:27PSTYesYESUSGS2660 Unspecified NONE
7252009-04-30 10:23PSTYesYESUSGS2560 Unspecified NONE
7242009-04-30 10:07PSTYesYESUSGS2440 Unspecified NONE
7232009-04-30 10:04PSTYesYESUSGS2360 Unspecified NONE
7222009-04-30 10:02PSTYesYESUSGS2450 Unspecified NONE
7212009-04-30 10:00PSTYesYESUSGS2300 Unspecified NONE
7202009-04-30 09:47PSTYesYESUSGS2170 Unspecified NONE
7192009-04-30 09:44PSTYesYESUSGS2070 Unspecified NONE
7182009-04-30 09:42PSTYesYESUSGS2110 Unspecified NONE
7172009-04-30 09:40PSTYesYESUSGS2000 Unspecified NONE
7162009-04-30 09:37PSTYesYESUSGS2070 Unspecified NONE
7152009-04-30 09:34PSTYesYESUSGS1880 Unspecified NONE
7142009-04-30 09:31PSTYesYESUSGS1960 Unspecified NONE
7132009-04-30 09:28PSTYesYESUSGS1860 Unspecified NONE
7122009-04-30 09:14PSTYesYESUSGS1780 Unspecified NONE
7112009-04-30 09:12PSTYesYESUSGS1640 Unspecified NONE
7102009-04-30 09:09PSTYesYESUSGS1660 Unspecified NONE
7092009-04-30 09:07PSTYesYESUSGS1520 Unspecified NONE
7082009-04-30 09:04PSTYesYESUSGS1600 Unspecified NONE
7072009-04-30 09:02PSTYesYESUSGS1510 Unspecified NONE
7062009-04-30 08:59PSTYesYESUSGS1500 Unspecified NONE
7052009-04-30 08:57PSTYesYESUSGS1450 Unspecified NONE
7042009-04-30 08:54PSTYesYESUSGS1420 Unspecified NONE
7032009-04-30 08:52PSTYesYESUSGS1290 Unspecified NONE
7022009-04-30 08:35PSTYesYESUSGS1030 Unspecified NONE
7012009-04-30 08:32PSTYesYESUSGS1040 Unspecified NONE
7002009-04-30 08:30PSTYesYESUSGS1050 Unspecified NONE
6992009-04-30 08:27PSTYesYESUSGS1070 Unspecified NONE
6982009-04-30 08:09PSTYesYESUSGS977 Unspecified NONE
6972009-04-30 08:06PSTYesYESUSGS968 Unspecified NONE
6962009-04-30 08:03PSTYesYESUSGS973 Unspecified NONE
6952009-04-30 08:01PSTYesYESUSGS973 Unspecified NONE
6942009-04-30 07:45PSTYesYESUSGS969 Unspecified NONE
6932009-04-30 07:43PSTYesYESUSGS905 Unspecified NONE
6922009-04-30 07:40PSTYesYESUSGS934 Unspecified NONE
6912009-04-30 07:37PSTYesYESUSGS914 Unspecified NONE
6902009-04-30 07:24PSTYesYESUSGS961 Unspecified NONE
6892009-04-30 07:21PSTYesYESUSGS904 Unspecified NONE
6882009-04-30 07:19PSTYesYESUSGS948 Unspecified NONE
6872009-04-30 07:16PSTYesYESUSGS919 Unspecified NONE
6862009-04-30 07:07PSTYesYESUSGS1010 Unspecified NONE
6852009-04-30 07:03PSTYesYESUSGS1090 Unspecified NONE
6842009-04-30 07:00PSTYesYESUSGS1080 Unspecified NONE
6832009-04-30 06:56PSTYesYESUSGS1050 Unspecified NONE
6822009-04-30 06:53PSTYesYESUSGS1020 Unspecified NONE
6812009-04-30 06:48PSTYesYESUSGS1050 Unspecified NONE
6802009-04-30 06:45PSTYesYESUSGS1130 Unspecified NONE
6792009-04-30 06:42PSTYesYESUSGS1090 Unspecified NONE
6782009-04-30 06:39PSTYesYESUSGS1170 Unspecified NONE
6772009-04-30 06:36PSTYesYESUSGS1190 Unspecified NONE
6762009-04-30 06:28PSTYesYESUSGS1300 Unspecified NONE
6752009-04-30 06:26PSTYesYESUSGS1240 Unspecified NONE
6742009-04-30 06:23PSTYesYESUSGS1290 Unspecified NONE
6732009-03-06 12:15PSTYesBJS/CRBUSGS61107.95 Unspecified NONE
6722009-03-06 12:11PSTYesBJS/CRBUSGS61407.94 Unspecified NONE
6712009-03-06 12:08PSTYesBJS/CRBUSGS61807.93 Unspecified NONE
6702009-03-06 12:04PSTYesBJS/CRBUSGS61407.92 Unspecified NONE
6692009-03-06 12:00PSTYesBJS/CRBUSGS60107.91 Unspecified NONE
6682009-03-06 11:57PSTYesBJS/CRBUSGS60707.90 Unspecified NONE
6672009-01-06 13:42PSTYesBJS/PHKUSGS13105.32 Unspecified NONE
6662009-01-06 13:40PSTYesBJS/PHKUSGS12005.33 Unspecified NONE
6652009-01-06 13:37PSTYesBJS/PHKUSGS11005.35 Unspecified NONE
6642009-01-06 13:34PSTYesBJS/PHKUSGS10105.38 Unspecified NONE
6632009-01-06 13:32PSTYesBJS/PHKUSGS9195.39 Unspecified NONE
6622009-01-06 13:28PSTYesBJS/PHKUSGS7825.42 Unspecified NONE
6612008-08-21 17:30PSTYesBJS/MAYUSGS-2195.18 Unspecified NONE
6602008-08-21 17:28PSTYesBJS/MAYUSGS-1365.17 Unspecified NONE
6592008-08-21 17:25PSTYesBJS/MAYUSGS-90.05.15 Unspecified NONE
6582008-08-21 17:23PSTYesBJS/MAYUSGS-83.05.13 Unspecified NONE
6572008-08-21 17:21PSTYesBJS/MAYUSGS-85.05.11 Unspecified NONE
6562008-08-21 17:18PSTYesBJS/MAYUSGS15.05.10 Unspecified NONE
6552008-08-21 17:16PSTYesBJS/MAYUSGS56.05.08 Unspecified NONE
6542008-08-21 17:14PSTYesBJS/MAYUSGS96.05.06 Unspecified NONE
6532008-08-21 16:57PSTYesBJS/MAYUSGS4004.90 Unspecified NONE
6522008-08-21 16:43PSTYesBJS/MAYUSGS5964.75 Unspecified NONE
6512008-08-21 16:41PSTYesBJS/MAYUSGS6714.73 Unspecified NONE
6502008-08-21 16:32PSTYesBJS/MAYUSGS7904.66 Unspecified NONE
6492008-08-21 16:29PSTYesBJS/MAYUSGS8634.63 Unspecified NONE
6482008-08-21 16:26PSTYesBJS/MAYUSGS9004.61 Unspecified NONE
6472008-08-21 16:24PSTYesBJS/MAYUSGS9694.58 Unspecified NONE
6462008-08-21 16:21PSTYesBJS/MAYUSGS10204.56 Unspecified NONE
6452008-08-21 16:19PSTYesBJS/MAYUSGS10704.53 Unspecified NONE
6442008-08-21 16:17PSTYesBJS/MAYUSGS11004.51 Unspecified NONE
6432008-08-21 16:14PSTYesBJS/MAYUSGS10604.49 Unspecified NONE
6422008-08-21 16:12PSTYesBJS/MAYUSGS11004.46 Unspecified NONE
6412008-08-21 16:09PSTYesBJS/MAYUSGS10904.44 Unspecified NONE
6402008-08-21 16:07PSTYesBJS/MAYUSGS11604.42 Unspecified NONE
6392008-08-21 16:04PSTYesBJS/MAYUSGS11804.40 Unspecified NONE
6382008-08-21 16:02PSTYesBJS/MAYUSGS13004.38 Unspecified NONE
6372008-08-21 16:00PSTYesBJS/MAYUSGS13004.36 Unspecified NONE
6362008-08-21 15:58PSTYesBJS/MAYUSGS13104.33 Unspecified NONE
6352008-08-21 15:55PSTYesBJS/MAYUSGS13504.30 Unspecified NONE
6342008-08-21 15:52PSTYesBJS/MAYUSGS14604.26 Unspecified NONE
6332008-08-21 15:50PSTYesBJS/MAYUSGS15604.23 Unspecified NONE
6322008-08-21 15:47PSTYesBJS/MAYUSGS15304.21 Unspecified NONE
6312008-08-21 15:45PSTYesBJS/MAYUSGS16104.17 Unspecified NONE
6302008-08-21 15:43PSTYesBJS/MAYUSGS16404.16 Unspecified NONE
6292008-08-21 15:40PSTYesBJS/MAYUSGS16404.14 Unspecified NONE
6282008-08-21 15:38PSTYesBJS/MAYUSGS16604.12 Unspecified NONE
6272008-08-21 15:35PSTYesBJS/MAYUSGS16004.11 Unspecified NONE
6262008-08-21 15:33PSTYesBJS/MAYUSGS16504.09 Unspecified NONE
6252008-08-21 15:31PSTYesBJS/MAYUSGS17104.07 Unspecified NONE
6242008-08-21 15:28PSTYesBJS/MAYUSGS17404.05 Unspecified NONE
6232008-08-21 15:26PSTYesBJS/MAYUSGS17004.02 Unspecified NONE
6222008-08-21 15:23PSTYesBJS/MAYUSGS17704.00 Unspecified NONE
6212008-08-21 15:21PSTYesBJS/MAYUSGS18803.97 Unspecified NONE
6202008-08-21 15:18PSTYesBJS/MAYUSGS15203.94 Unspecified NONE
6192008-08-21 15:05PSTYesBJS/MAYUSGS20403.80 Unspecified NONE
6182008-08-21 15:03PSTYesBJS/MAYUSGS20403.77 Unspecified NONE
6172008-08-21 15:00PSTYesBJS/MAYUSGS18803.74 Unspecified NONE
6162008-08-21 14:57PSTYesBJS/MAYUSGS21103.71 Unspecified NONE
6152008-08-21 14:54PSTYesBJS/MAYUSGS21703.67 Unspecified NONE
6142008-08-21 14:52PSTYesBJS/MAYUSGS21503.64 Unspecified NONE
6132008-08-21 14:49PSTYesBJS/MAYUSGS22403.61 Unspecified NONE
6122008-08-21 14:46PSTYesBJS/MAYUSGS23003.58 Unspecified NONE
6112008-08-21 14:43PSTYesBJS/MAYUSGS23203.55 Unspecified NONE
6102008-08-21 14:40PSTYesBJS/MAYUSGS24303.53 Unspecified NONE
6092008-08-21 14:37PSTYesBJS/MAYUSGS23803.51 Unspecified NONE
6082008-08-21 14:33PSTYesBJS/MAYUSGS23703.48 Unspecified NONE
6072008-08-21 14:29PSTYesBJS/MAYUSGS24203.46 Unspecified NONE
6062008-08-21 14:26PSTYesBJS/MAYUSGS24903.44 Unspecified NONE
6052008-08-21 14:23PSTYesBJS/MAYUSGS24603.43 Unspecified NONE
6042008-08-21 14:20PSTYesBJS/MAYUSGS25103.41 Unspecified NONE
6032008-08-21 14:17PSTYesBJS/MAYUSGS25003.40 Unspecified NONE
6022008-08-21 14:15PSTYesBJS/MAYUSGS25403.39 Unspecified NONE
6012008-08-21 14:12PSTYesBJS/MAYUSGS25903.39 Unspecified NONE
6002008-08-21 14:10PSTYesBJS/MAYUSGS25803.39 Unspecified NONE
5992008-08-21 14:08PSTYesBJS/MAYUSGS27203.38 Unspecified NONE
5982008-08-21 14:05PSTYesBJS/MAYUSGS28303.38 Unspecified NONE
5972008-08-21 14:03PSTYesBJS/MAYUSGS27303.38 Unspecified NONE
5962008-08-21 14:01PSTYesBJS/MAYUSGS26703.37 Unspecified NONE
5952008-08-21 13:37PSTYesBJS/MAYUSGS28203.39 Unspecified NONE
5942008-08-21 13:33PSTYesBJS/MAYUSGS28903.40 Unspecified NONE
5932008-08-21 13:27PSTYesBJS/MAYUSGS29003.41 Unspecified NONE
5922008-08-21 13:24PSTYesBJS/MAYUSGS29703.42 Unspecified NONE
5912008-08-21 13:22PSTYesBJS/MAYUSGS27703.43 Unspecified NONE
5902008-08-21 13:14PSTYesBJS/MAYUSGS29203.46 Unspecified NONE
5892008-08-21 13:12PSTYesBJS/MAYUSGS30303.47 Unspecified NONE
5882008-08-21 13:10PSTYesBJS/MAYUSGS29403.48 Unspecified NONE
5872008-08-21 13:06PSTYesBJS/MAYUSGS30003.49 Unspecified NONE
5862008-08-21 13:03PSTYesBJS/MAYUSGS28903.51 Unspecified NONE
5852008-08-21 13:01PSTYesBJS/MAYUSGS30103.52 Unspecified NONE
5842008-08-21 12:58PSTYesBJS/MAYUSGS29703.53 Unspecified NONE
5832008-08-21 12:56PSTYesBJS/MAYUSGS30803.54 Unspecified NONE
5822008-08-21 12:53PSTYesBJS/MAYUSGS29903.56 Unspecified NONE
5812008-08-21 12:39PSTYesBJS/MAYUSGS28903.64 Unspecified NONE
5802008-08-21 12:37PSTYesBJS/MAYUSGS29703.65 Unspecified NONE
5792008-08-21 12:34PSTYesBJS/MAYUSGS29303.67 Unspecified NONE
5782008-08-21 12:32PSTYesBJS/MAYUSGS30503.68 Unspecified NONE
5772008-08-21 12:29PSTYesBJS/MAYUSGS29503.70 Unspecified NONE
5762008-08-21 12:27PSTYesBJS/MAYUSGS30003.71 Unspecified NONE
5752008-08-21 12:24PSTYesBJS/MAYUSGS29603.73 Unspecified NONE
5742008-08-21 12:22PSTYesBJS/MAYUSGS29903.75 Unspecified NONE
5732008-08-21 12:19PSTYesBJS/MAYUSGS29503.76 Unspecified NONE
5722008-08-21 12:17PSTYesBJS/MAYUSGS29603.78 Unspecified NONE
5712008-08-21 12:14PSTYesBJS/MAYUSGS28803.80 Unspecified NONE
5702008-08-21 12:12PSTYesBJS/MAYUSGS29903.82 Unspecified NONE
5692008-08-21 12:10PSTYesBJS/MAYUSGS28903.83 Unspecified NONE
5682008-08-21 12:07PSTYesBJS/MAYUSGS28803.84 Unspecified NONE
5672008-08-21 12:05PSTYesBJS/MAYUSGS28803.86 Unspecified NONE
5662008-08-21 12:03PSTYesBJS/MAYUSGS29403.87 Unspecified NONE
5652008-08-21 12:00PSTYesBJS/MAYUSGS29303.89 Unspecified NONE
5642008-08-21 11:58PSTYesBJS/MAYUSGS29303.90 Unspecified NONE
5632008-08-21 11:56PSTYesBJS/MAYUSGS29003.92 Unspecified NONE
5622008-08-21 11:51PSTYesBJS/MAYUSGS29003.95 Unspecified NONE
5612008-08-21 11:46PSTYesBJS/MAYUSGS28503.98 Unspecified NONE
5602008-08-21 11:40PSTYesBJS/MAYUSGS27904.02 Unspecified NONE
5592008-08-21 11:28PSTYesBJS/MAYUSGS28504.10 Unspecified NONE
5582008-08-21 11:17PSTYesBJS/MAYUSGS26804.17 Unspecified NONE
5572008-08-21 11:13PSTYesBJS/MAYUSGS27604.20 Unspecified NONE
5562008-08-21 11:10PSTYesBJS/MAYUSGS26104.23 Unspecified NONE
5552008-08-21 11:03PSTYesBJS/MAYUSGS27504.27 Unspecified NONE
5542008-08-21 10:57PSTYesBJS/MAYUSGS26004.32 Unspecified NONE
5532008-08-21 10:53PSTYesBJS/MAYUSGS25704.35 Unspecified NONE
5522008-08-21 10:49PSTYesBJS/MAYUSGS25704.38 Unspecified NONE
5512008-08-21 10:44PSTYesBJS/MAYUSGS24904.41 Unspecified NONE
5502008-08-21 10:39PSTYesBJS/MAYUSGS24404.44 Unspecified NONE
5492008-08-21 10:37PSTYesBJS/MAYUSGS23704.47 Unspecified NONE
5482008-08-21 10:34PSTYesBJS/MAYUSGS24204.48 Unspecified NONE
5472008-08-21 10:29PSTYesBJS/MAYUSGS23604.52 Unspecified NONE
5462008-08-21 10:26PSTYesBJS/MAYUSGS23704.54 Unspecified NONE
5452008-08-21 10:24PSTYesBJS/MAYUSGS23204.55 Unspecified NONE
5442008-08-21 10:22PSTYesBJS/MAYUSGS23004.57 Unspecified NONE
5432008-08-21 10:20PSTYesBJS/MAYUSGS22904.58 Unspecified NONE
5422008-08-21 10:17PSTYesBJS/MAYUSGS23004.61 Unspecified NONE
5412008-08-21 10:14PSTYesBJS/MAYUSGS21704.63 Unspecified NONE
5402008-08-21 10:11PSTYesBJS/MAYUSGS20904.65 Unspecified NONE
5392008-08-21 10:08PSTYesBJS/MAYUSGS20804.67 Unspecified NONE
5382008-08-21 10:06PSTYesBJS/MAYUSGS20504.69 Unspecified NONE
5372008-08-21 09:55PSTYesBJS/MAYUSGS19604.76 Unspecified NONE
5362008-08-21 09:53PSTYesBJS/MAYUSGS18404.78 Unspecified NONE
5352008-08-21 09:50PSTYesBJS/MAYUSGS17704.80 Unspecified NONE
5342008-08-21 09:44PSTYesBJS/MAYUSGS17304.83 Unspecified NONE
5332008-08-21 09:38PSTYesBJS/MAYUSGS14104.87 Unspecified NONE
5322008-08-21 09:28PSTYesBJS/MAYUSGS13504.94 Unspecified NONE
5312008-08-21 09:26PSTYesBJS/MAYUSGS13204.95 Unspecified NONE
5302008-08-21 09:23PSTYesBJS/MAYUSGS15104.97 Unspecified NONE
5292008-08-21 09:21PSTYesBJS/MAYUSGS12504.98 Unspecified NONE
5282008-08-21 09:19PSTYesBJS/MAYUSGS10904.99 Unspecified NONE
5272008-08-21 09:17PSTYesBJS/MAYUSGS10805.00 Unspecified NONE
5262008-08-21 09:15PSTYesBJS/MAYUSGS9845.02 Unspecified NONE
5252008-08-21 09:13PSTYesBJS/MAYUSGS10405.03 Unspecified NONE
5242008-03-25 10:10PSTYesJBD/CRBUSGS27704.23 Unspecified NONE
5232008-03-25 10:06PSTYesJBD/CRBUSGS28304.26 Unspecified NONE
5222008-03-25 10:01PSTYesJBD/CRBUSGS27704.30 Unspecified NONE
5212008-03-25 09:57PSTYesJBD/CRBUSGS28304.33 Unspecified NONE
5202008-03-25 09:52PSTYesJBD/CRBUSGS27004.37 Unspecified NONE
5192008-03-25 09:45PSTYesJBD/CRBUSGS27004.42 Unspecified NONE
5182008-01-30 14:28PSTYesJEG/BJSUSGS64806.15 Unspecified NONE
5172008-01-30 14:24PSTYesJEG/BJSUSGS63906.18 Unspecified NONE
5162008-01-30 14:20PSTYesJEG/BJSUSGS64006.20 Unspecified NONE
5152008-01-30 14:16PSTYesJEG/BJSUSGS64806.22 Unspecified NONE
5142008-01-30 14:12PSTYesJEG/BJSUSGS64306.24 Unspecified NONE
5132008-01-30 14:08PSTYesJEG/BJSUSGS61106.26 Unspecified NONE
5122008-01-30 12:11PSTYesJEG/BJSUSGS59306.80 Unspecified NONE
5112008-01-30 12:07PSTYesJEG/BJSUSGS57606.82 Unspecified NONE
5102008-01-30 12:03PSTYesJEG/BJSUSGS58606.83 Unspecified NONE
5092008-01-30 11:59PSTYesJEG/BJSUSGS58706.84 Unspecified NONE
5082008-01-02 16:28PSTYesJEG/BJSUSGS29604.24 Unspecified NONE
5072008-01-02 16:25PSTYesJEG/BJSUSGS29004.26 Unspecified NONE
5062008-01-02 16:23PSTYesJEG/BJSUSGS29204.27 Unspecified NONE
5052008-01-02 16:20PSTYesJEG/BJSUSGS29204.30 Unspecified NONE
5042008-01-02 16:17PSTYesJEG/BJSUSGS28904.32 Unspecified NONE
5032008-01-02 16:15PSTYesJEG/BJSUSGS28904.34 Unspecified NONE
5022008-01-02 16:12PSTYesJEG/BJSUSGS29004.36 Unspecified NONE
5012008-01-02 16:10PSTYesJEG/BJSUSGS28404.38 Unspecified NONE
5002008-01-02 16:08PSTYesJEG/BJSUSGS25404.39 Unspecified NONE
4992008-01-02 16:06PSTYesJEG/BJSUSGS26104.41 Unspecified NONE
4982007-11-07 15:25PSTYesPSx/CBxUSGS-14605.67 Unspecified NONE
4972007-11-07 15:22PSTYesPSx/CBxUSGS-15405.67 Unspecified NONE
4962007-11-07 15:19PSTYesPSx/CBxUSGS-16605.67 Unspecified NONE
4952007-11-07 15:16PSTYesPSx/CBxUSGS-16105.67 Unspecified NONE
4942007-11-07 15:14PSTYesPSx/CBxUSGS-15105.67 Unspecified NONE
4932007-11-07 15:11PSTYesPSx/CBxUSGS-16105.66 Unspecified NONE
4922007-11-07 15:08PSTYesPSx/CBxUSGS-16305.66 Unspecified NONE
4912007-11-07 15:05PSTYesPSx/CBxUSGS-15305.65 Unspecified NONE
4902007-11-07 15:00PSTYesPSx/CBxUSGS-16605.64 Unspecified NONE
4892007-11-07 14:57PSTYesPSx/CBxUSGS-16605.63 Unspecified NONE
4882007-11-07 14:53PSTYesPSx/CBxUSGS-16405.61 Unspecified NONE
4872007-11-07 14:50PSTYesPSx/CBxUSGS-17205.60 Unspecified NONE
4862007-11-07 14:46PSTYesPSx/CBxUSGS-15905.58 Unspecified NONE
4852007-11-07 14:43PSTYesPSx/CBxUSGS-16405.57 Unspecified NONE
4842007-11-07 14:39PSTYesPSx/CBxUSGS-16705.55 Unspecified NONE
4832007-11-07 14:35PSTYesPSx/CBxUSGS-16305.53 Unspecified NONE
4822007-11-07 14:32PSTYesPSx/CBxUSGS-16605.51 Unspecified NONE
4812007-11-07 14:28PSTYesPSx/CBxUSGS-16305.50 Unspecified NONE
4802007-11-07 14:25PSTYesPSx/CBxUSGS-16205.48 Unspecified NONE
4792007-08-29 17:09PSTYesJRY/JRYUSGS12005.39 Unspecified NONE
4782007-08-29 17:07PSTYesJRY/JRYUSGS12505.39 Unspecified NONE
4772007-08-29 17:04PSTYesJRY/JRYUSGS11905.38 Unspecified NONE
4762007-08-29 17:02PSTYesJRY/JRYUSGS11505.36 Unspecified NONE
4752007-08-29 16:59PSTYesJRY/JRYUSGS12105.35 Unspecified NONE
4742007-08-29 16:57PSTYesJRY/JRYUSGS12805.33 Unspecified NONE
4732007-08-29 16:54PSTYesJRY/JRYUSGS13305.31 Unspecified NONE
4722007-08-29 16:52PSTYesJRY/JRYUSGS13505.29 Unspecified NONE
4712007-08-29 16:49PSTYesJRY/JRYUSGS13205.27 Unspecified NONE
4702007-08-29 16:47PSTYesJRY/JRYUSGS13905.25 Unspecified NONE
4692007-08-29 16:44PSTYesJRY/JRYUSGS13505.23 Unspecified NONE
4682007-08-29 16:42PSTYesJRY/JRYUSGS14205.22 Unspecified NONE
4672007-08-29 16:39PSTYesJRY/JRYUSGS14505.20 Unspecified NONE
4662007-08-29 16:37PSTYesJRY/JRYUSGS14705.18 Unspecified NONE
4652007-08-29 16:34PSTYesJRY/JRYUSGS14705.16 Unspecified NONE
4642007-08-29 16:31PSTYesJRY/JRYUSGS15005.13 Unspecified NONE
4632007-08-29 16:29PSTYesJRY/JRYUSGS15105.11 Unspecified NONE
4622007-08-29 16:26PSTYesJRY/JRYUSGS15405.09 Unspecified NONE
4612007-08-29 16:24PSTYesJRY/JRYUSGS15305.07 Unspecified NONE
4602007-08-29 16:21PSTYesJRY/JRYUSGS16005.05 Unspecified NONE
4592007-08-29 16:19PSTYesJRY/JRYUSGS15605.03 Unspecified NONE
4582007-08-29 16:08PSTYesJRY/JRYUSGS17804.93 Unspecified NONE
4572007-08-29 16:05PSTYesJRY/JRYUSGS18304.90 Unspecified NONE
4562007-08-29 16:03PSTYesJRY/JRYUSGS18504.87 Unspecified NONE
4552007-08-29 16:00PSTYesJRY/JRYUSGS17804.84 Unspecified NONE
4542007-08-29 15:57PSTYesJRY/JRYUSGS18104.81 Unspecified NONE
4532007-08-29 14:40PSTYesJRY/JRYUSGS20904.20 Unspecified NONE
4522007-08-29 14:37PSTYesJRY/JRYUSGS21004.16 Unspecified NONE
4512007-08-29 14:34PSTYesJRY/JRYUSGS21404.13 Unspecified NONE
4502007-08-29 14:32PSTYesJRY/JRYUSGS21804.11 Unspecified NONE
4492007-08-29 14:29PSTYesJRY/JRYUSGS21804.09 Unspecified NONE
4482007-08-29 14:13PSTYesJRY/JRYUSGS22603.90 Unspecified NONE
4472007-08-29 14:11PSTYesJRY/JRYUSGS22803.88 Unspecified NONE
4462007-08-29 14:09PSTYesJRY/JRYUSGS24403.85 Unspecified NONE
4452007-08-29 14:06PSTYesJRY/JRYUSGS23503.82 Unspecified NONE
4442007-08-29 14:03PSTYesJRY/JRYUSGS23503.80 Unspecified NONE
4432007-08-29 14:00PSTYesJRY/JRYUSGS23803.77 Unspecified NONE
4422007-08-29 13:56PSTYesJRY/JRYUSGS24703.73 Unspecified NONE
4412007-08-29 13:53PSTYesJRY/JRYUSGS25403.70 Unspecified NONE
4402007-08-29 13:50PSTYesJRY/JRYUSGS25603.68 Unspecified NONE
4392007-08-29 13:47PSTYesJRY/JRYUSGS25403.65 Unspecified NONE
4382007-08-29 13:45PSTYesJRY/JRYUSGS25803.62 Unspecified NONE
4372007-08-29 13:41PSTYesJRY/JRYUSGS26303.58 Unspecified NONE
4362007-08-29 13:38PSTYesJRY/JRYUSGS26803.54 Unspecified NONE
4352007-08-29 13:36PSTYesJRY/JRYUSGS27203.52 Unspecified NONE
4342007-08-29 13:34PSTYesJRY/JRYUSGS27303.50 Unspecified NONE
4332007-08-29 13:31PSTYesJRY/JRYUSGS27503.48 Unspecified NONE
4322007-08-29 13:29PSTYesJRY/JRYUSGS28003.46 Unspecified NONE
4312007-08-29 13:27PSTYesJRY/JRYUSGS27403.44 Unspecified NONE
4302007-08-29 13:25PSTYesJRY/JRYUSGS28803.42 Unspecified NONE
4292007-08-29 13:23PSTYesJRY/JRYUSGS28703.40 Unspecified NONE
4282007-08-29 13:21PSTYesJRY/JRYUSGS28903.38 Unspecified NONE
4272007-08-29 13:18PSTYesJRY/JRYUSGS29303.36 Unspecified NONE
4262007-08-29 13:16PSTYesJRY/JRYUSGS29303.33 Unspecified NONE
4252007-08-29 13:14PSTYesJRY/JRYUSGS30103.32 Unspecified NONE
4242007-08-29 13:11PSTYesJRY/JRYUSGS30303.31 Unspecified NONE
4232007-08-29 13:09PSTYesJRY/JRYUSGS29903.29 Unspecified NONE
4222007-08-29 13:06PSTYesJRY/JRYUSGS30603.27 Unspecified NONE
4212007-08-29 13:04PSTYesJRY/JRYUSGS30403.26 Unspecified NONE
4202007-08-29 13:01PSTYesJRY/JRYUSGS29303.25 Unspecified NONE
4192007-08-29 12:59PSTYesJRY/JRYUSGS31103.24 Unspecified NONE
4182007-08-29 12:52PSTYesJRY/JRYUSGS31803.22 Unspecified NONE
4172007-08-29 12:50PSTYesJRY/JRYUSGS31403.22 Unspecified NONE
4162007-08-29 12:48PSTYesJRY/JRYUSGS32403.22 Unspecified NONE
4152007-08-29 12:45PSTYesJRY/JRYUSGS32503.21 Unspecified NONE
4142007-08-29 12:31PSTYesJRY/JRYUSGS34603.22 Unspecified NONE
4132007-08-29 12:28PSTYesJRY/JRYUSGS33903.22 Unspecified NONE
4122007-08-29 12:25PSTYesJRY/JRYUSGS34803.23 Unspecified NONE
4112007-08-29 12:23PSTYesJRY/JRYUSGS33803.23 Unspecified NONE
4102007-08-29 12:10PSTYesJRY/JRYUSGS35703.27 Unspecified NONE
4092007-08-29 12:07PSTYesJRY/JRYUSGS34603.29 Unspecified NONE
4082007-08-29 12:03PSTYesJRY/JRYUSGS34903.30 Unspecified NONE
4072007-08-29 12:00PSTYesJRY/JRYUSGS35403.31 Unspecified NONE
4062007-08-29 11:57PSTYesJRY/JRYUSGS34303.33 Unspecified NONE
4052007-08-29 11:54PSTYesJRY/JRYUSGS35103.35 Unspecified NONE
4042007-08-29 11:52PSTYesJRY/JRYUSGS34103.36 Unspecified NONE
4032007-08-29 11:49PSTYesJRY/JRYUSGS35403.38 Unspecified NONE
4022007-08-29 11:46PSTYesJRY/JRYUSGS36603.39 Unspecified NONE
4012007-08-29 11:43PSTYesJRY/JRYUSGS36003.40 Unspecified NONE
4002007-08-29 11:40PSTYesJRY/JRYUSGS36103.42 Unspecified NONE
3992007-08-29 11:37PSTYesJRY/JRYUSGS35003.44 Unspecified NONE
3982007-08-29 11:34PSTYesJRY/JRYUSGS35603.46 Unspecified NONE
3972007-08-29 11:32PSTYesJRY/JRYUSGS36003.47 Unspecified NONE
3962007-08-29 11:20PSTYesJRY/JRYUSGS35803.55 Unspecified NONE
3952007-08-29 11:10PSTYesJRY/JRYUSGS36003.62 Unspecified NONE
3942007-08-29 11:06PSTYesJRY/JRYUSGS35303.64 Unspecified NONE
3932007-08-29 11:03PSTYesJRY/JRYUSGS35903.66 Unspecified NONE
3922007-08-29 11:00PSTYesJRY/JRYUSGS35403.68 Unspecified NONE
3912007-08-29 10:57PSTYesJRY/JRYUSGS34903.70 Unspecified NONE
3902007-08-29 10:54PSTYesJRY/JRYUSGS35403.72 Unspecified NONE
3892007-08-29 10:50PSTYesJRY/JRYUSGS34903.75 Unspecified NONE
3882007-08-29 10:47PSTYesJRY/JRYUSGS34603.77 Unspecified NONE
3872007-08-29 10:44PSTYesJRY/JRYUSGS35003.79 Unspecified NONE
3862007-08-29 10:41PSTYesJRY/JRYUSGS35503.80 Unspecified NONE
3852007-08-29 10:38PSTYesJRY/JRYUSGS35903.82 Unspecified NONE
3842007-08-29 10:29PSTYesJRY/JRYUSGS36203.89 Unspecified NONE
3832007-08-29 10:26PSTYesJRY/JRYUSGS34703.91 Unspecified NONE
3822007-08-29 10:24PSTYesJRY/JRYUSGS34603.93 Unspecified NONE
3812007-08-29 10:21PSTYesJRY/JRYUSGS34803.95 Unspecified NONE
3802007-08-29 10:18PSTYesJRY/JRYUSGS35003.97 Unspecified NONE
3792007-08-29 10:16PSTYesJRY/JRYUSGS35203.99 Unspecified NONE
3782007-08-29 10:13PSTYesJRY/JRYUSGS33704.01 Unspecified NONE
3772007-08-29 10:10PSTYesJRY/JRYUSGS35804.03 Unspecified NONE
3762007-08-29 10:08PSTYesJRY/JRYUSGS35404.05 Unspecified NONE
3752007-08-29 10:05PSTYesJRY/JRYUSGS35404.07 Unspecified NONE
3742007-08-29 10:02PSTYesJRY/JRYUSGS34804.09 Unspecified NONE
3732007-08-29 10:00PSTYesJRY/JRYUSGS35504.10 Unspecified NONE
3722007-08-29 09:57PSTYesJRY/JRYUSGS35004.13 Unspecified NONE
3712007-08-29 09:54PSTYesJRY/JRYUSGS34804.15 Unspecified NONE
3702007-08-29 09:52PSTYesJRY/JRYUSGS34004.16 Unspecified NONE
3692007-08-29 09:49PSTYesJRY/JRYUSGS34604.18 Unspecified NONE
3682007-08-29 09:47PSTYesJRY/JRYUSGS34204.20 Unspecified NONE
3672007-08-29 09:44PSTYesJRY/JRYUSGS33904.22 Unspecified NONE
3662007-08-29 09:33PSTYesJRY/JRYUSGS34004.30 Unspecified NONE
3652007-08-29 09:30PSTYesJRY/JRYUSGS34504.32 Unspecified NONE
3642007-08-29 09:27PSTYesJRY/JRYUSGS33604.33 Unspecified NONE
3632007-08-29 09:25PSTYesJRY/JRYUSGS33504.35 Unspecified NONE
3622007-08-29 09:23PSTYesJRY/JRYUSGS33304.37 Unspecified NONE
3612007-08-29 09:20PSTYesJRY/JRYUSGS33304.39 Unspecified NONE
3602007-08-29 09:18PSTYesJRY/JRYUSGS33904.40 Unspecified NONE
3592007-08-29 09:16PSTYesJRY/JRYUSGS32704.42 Unspecified NONE
3582007-08-29 09:14PSTYesJRY/JRYUSGS32704.43 Unspecified NONE
3572007-08-29 09:12PSTYesJRY/JRYUSGS33704.45 Unspecified NONE
3562007-08-29 09:10PSTYesJRY/JRYUSGS33604.47 Unspecified NONE
3552007-08-29 09:07PSTYesJRY/JRYUSGS32004.48 Unspecified NONE
3542007-08-29 08:59PSTYesJRY/JRYUSGS32704.54 Unspecified NONE
3532007-08-29 08:57PSTYesJRY/JRYUSGS32304.55 Unspecified NONE
3522007-08-29 08:55PSTYesJRY/JRYUSGS32204.57 Unspecified NONE
3512007-08-29 08:53PSTYesJRY/JRYUSGS32504.58 Unspecified NONE
3502007-08-29 08:51PSTYesJRY/JRYUSGS31504.60 Unspecified NONE
3492007-08-29 08:49PSTYesJRY/JRYUSGS31804.62 Unspecified NONE
3482007-08-29 08:47PSTYesJRY/JRYUSGS30504.63 Unspecified NONE
3472007-08-29 08:45PSTYesJRY/JRYUSGS31704.64 Unspecified NONE
3462007-08-29 08:43PSTYesJRY/JRYUSGS32304.66 Unspecified NONE
3452007-08-29 08:40PSTYesJRY/JRYUSGS31404.68 Unspecified NONE
3442007-08-29 08:38PSTYesJRY/JRYUSGS31404.69 Unspecified NONE
3432007-08-29 08:36PSTYesJRY/JRYUSGS32404.70 Unspecified NONE
3422007-08-29 08:34PSTYesJRY/JRYUSGS32304.72 Unspecified NONE
3412007-08-29 08:31PSTYesJRY/JRYUSGS31104.74 Unspecified NONE
3402007-08-29 08:28PSTYesJRY/JRYUSGS31504.77 Unspecified NONE
3392007-08-29 08:26PSTYesJRY/JRYUSGS31004.79 Unspecified NONE
3382007-08-29 08:23PSTYesJRY/JRYUSGS30204.80 Unspecified NONE
3372007-08-29 07:59PSTYesJRY/JRYUSGS29304.97 Unspecified NONE
3362007-08-21 12:18PSTYesBJS/TMGUSGS11204.55 Unspecified NONE
3352007-08-21 12:16PSTYesBJS/TMGUSGS11104.55 Unspecified NONE
3342007-08-21 12:14PSTYesBJS/TMGUSGS11304.54 Unspecified NONE
3332007-08-21 12:12PSTYesBJS/TMGUSGS11104.54 Unspecified NONE
3322007-08-21 12:09PSTYesBJS/TMGUSGS11004.54 Unspecified NONE
3312007-08-21 12:07PSTYesBJS/TMGUSGS11904.53 Unspecified NONE
3302007-08-21 12:04PSTYesBJS/TMGUSGS11504.52 Unspecified NONE
3292007-08-21 12:01PSTYesBJS/TMGUSGS11804.51 Unspecified NONE
3282007-08-21 11:59PSTYesBJS/TMGUSGS12004.49 Unspecified NONE
3272007-08-21 11:57PSTYesBJS/TMGUSGS12104.48 Unspecified NONE
3262007-08-21 11:55PSTYesBJS/TMGUSGS11404.47 Unspecified NONE
3252007-08-21 11:52PSTYesBJS/TMGUSGS12004.47 Unspecified NONE
3242007-08-21 11:50PSTYesBJS/TMGUSGS11504.46 Unspecified NONE
3232007-08-21 11:48PSTYesBJS/TMGUSGS12004.45 Unspecified NONE
3222007-08-21 11:06PSTYesBJS/TMGUSGS12004.32 Unspecified NONE
3212007-08-21 11:04PSTYesBJS/TMGUSGS11504.31 Unspecified NONE
3202007-08-21 11:02PSTYesBJS/TMGUSGS12204.30 Unspecified NONE
3192007-08-21 10:59PSTYesBJS/TMGUSGS12304.29 Unspecified NONE
3182007-08-21 10:57PSTYesBJS/TMGUSGS12104.28 Unspecified NONE
3172007-08-21 10:55PSTYesBJS/TMGUSGS12504.27 Unspecified NONE
3162007-08-21 10:52PSTYesBJS/TMGUSGS11904.26 Unspecified NONE
3152007-08-21 10:50PSTYesBJS/TMGUSGS12604.25 Unspecified NONE
3142007-08-21 10:48PSTYesBJS/TMGUSGS12804.24 Unspecified NONE
3132007-08-21 10:45PSTYesBJS/TMGUSGS13204.23 Unspecified NONE
3122007-08-21 10:43PSTYesBJS/TMGUSGS12704.22 Unspecified NONE
3112007-08-21 10:41PSTYesBJS/TMGUSGS13704.21 Unspecified NONE
3102007-08-21 10:38PSTYesBJS/TMGUSGS12804.19 Unspecified NONE
3092007-08-21 10:36PSTYesBJS/TMGUSGS13304.18 Unspecified NONE
3082007-08-21 10:22PSTYesBJS/TMGUSGS14004.10 Unspecified NONE
3072007-08-21 10:19PSTYesBJS/TMGUSGS14104.09 Unspecified NONE
3062007-08-21 10:17PSTYesBJS/TMGUSGS14604.08 Unspecified NONE
3052007-08-21 10:15PSTYesBJS/TMGUSGS14204.06 Unspecified NONE
3042007-08-21 10:12PSTYesBJS/TMGUSGS14704.05 Unspecified NONE
3032007-08-21 10:10PSTYesBJS/TMGUSGS14604.04 Unspecified NONE
3022007-08-21 10:08PSTYesBJS/TMGUSGS14604.02 Unspecified NONE
3012007-08-21 10:05PSTYesBJS/TMGUSGS14304.01 Unspecified NONE
3002007-08-21 10:03PSTYesBJS/TMGUSGS15204.00 Unspecified NONE
2992007-08-21 10:01PSTYesBJS/TMGUSGS15403.99 Unspecified NONE
2982007-08-21 09:58PSTYesBJS/TMGUSGS15603.97 Unspecified NONE
2972007-08-21 09:56PSTYesBJS/TMGUSGS15103.96 Unspecified NONE
2962007-08-21 09:54PSTYesBJS/TMGUSGS15803.95 Unspecified NONE
2952007-08-21 09:51PSTYesBJS/TMGUSGS16003.93 Unspecified NONE
2942007-08-21 09:49PSTYesBJS/TMGUSGS17103.92 Unspecified NONE
2932007-08-21 09:46PSTYesBJS/TMGUSGS16203.91 Unspecified NONE
2922007-08-21 09:39PSTYesBJS/TMGUSGS17403.86 Unspecified NONE
2912007-08-21 09:35PSTYesBJS/TMGUSGS17003.84 Unspecified NONE
2902007-08-21 09:32PSTYesBJS/TMGUSGS17403.82 Unspecified NONE
2892007-08-21 09:29PSTYesBJS/TMGUSGS17903.81 Unspecified NONE
2882007-08-21 09:24PSTYesBJS/TMGUSGS17403.78 Unspecified NONE
2872007-08-21 09:22PSTYesBJS/TMGUSGS18003.76 Unspecified NONE
2862007-08-21 09:19PSTYesBJS/TMGUSGS19003.75 Unspecified NONE
2852007-08-21 09:16PSTYesBJS/TMGUSGS18803.73 Unspecified NONE
2842007-08-21 09:13PSTYesBJS/TMGUSGS19403.70 Unspecified NONE
2832007-08-21 09:10PSTYesBJS/TMGUSGS19303.68 Unspecified NONE
2822007-08-21 09:08PSTYesBJS/TMGUSGS19203.66 Unspecified NONE
2812007-05-31 11:13PSTYes???USGS32803.42 Unspecified NONE
2802007-05-31 11:10PSTYes???USGS31303.44 Unspecified NONE
2792007-05-31 11:07PSTYes???USGS31903.46 Unspecified NONE
2782007-05-31 11:04PSTYes???USGS31803.48 Unspecified NONE
2772007-05-31 11:02PSTYes???USGS31403.50 Unspecified NONE
2762007-05-31 10:59PSTYes???USGS31203.51 Unspecified NONE
2752007-05-31 10:35PSTYes???USGS32103.67 Unspecified NONE
2742007-05-31 10:33PSTYes???USGS32003.69 Unspecified NONE
2732007-05-31 10:30PSTYes???USGS32603.70 Unspecified NONE
2722007-05-31 10:27PSTYes???USGS31003.72 Unspecified NONE
2712007-05-31 10:24PSTYes???USGS32403.74 Unspecified NONE
2702007-05-31 10:21PSTYes???USGS31503.77 Unspecified NONE
2692007-05-31 09:50PSTYes???USGS32203.99 Unspecified NONE
2682007-05-31 09:47PSTYes???USGS32004.01 Unspecified NONE
2672007-05-31 09:44PSTYes???USGS31104.04 Unspecified NONE
2662007-05-31 09:41PSTYes???USGS31104.06 Unspecified NONE
2652007-05-31 09:38PSTYes???USGS31004.08 Unspecified NONE
2642007-05-31 09:32PSTYes???USGS31504.13 Unspecified NONE
2632007-05-31 09:29PSTYes???USGS32504.15 Unspecified NONE
2622007-05-31 09:26PSTYes???USGS31604.18 Unspecified NONE
2612007-05-31 09:23PSTYes???USGS31304.20 Unspecified NONE
2602007-05-31 09:19PSTYes???USGS30804.23 Unspecified NONE
2592007-05-31 09:14PSTYes???USGS31704.27 Unspecified NONE
2582007-05-31 09:09PSTYes???USGS29104.30 Unspecified NONE
2572006-01-03 14:48PSTYes???USGS1170013.22 Unspecified NONE
2562006-01-03 14:44PSTYes???USGS1190013.22 Unspecified NONE
2552006-01-03 14:39PSTYes???USGS1190013.22 Unspecified NONE
2542006-01-03 14:35PSTYes???USGS1190013.20 Unspecified NONE
2532005-12-29 11:31PSTYes???USGS1320010.97 Unspecified NONE
2522005-12-29 11:26PSTYes???USGS1310010.95 Unspecified NONE
2512005-12-29 11:18PSTYes???USGS1310010.92 Unspecified NONE
2502005-12-29 11:14PSTYes???USGS1350010.91 Unspecified NONE
2492005-12-29 11:10PSTYes???USGS1330010.89 Unspecified NONE
2482005-12-29 11:05PSTYes???USGS1330010.89 Unspecified NONE
2472005-12-29 10:58PSTYes???USGS1330010.86 Unspecified NONE
2462005-11-15 15:47PSTYes???USGS-11305.78 Unspecified NONE
2452005-11-15 15:44PSTYes???USGS-10605.77 Unspecified NONE
2442005-11-15 15:41PSTYes???USGS-10605.76 Unspecified NONE
2432005-11-15 15:38PSTYes???USGS-10505.75 Unspecified NONE
2422005-11-15 15:35PSTYes???USGS-11205.74 Unspecified NONE
2412005-11-15 15:32PSTYes???USGS-11305.74 Unspecified NONE
2402005-11-15 15:28PSTYes???USGS-11605.73 Unspecified NONE
2392005-11-15 15:25PSTYes???USGS-11605.73 Unspecified NONE
2382005-11-15 15:22PSTYes???USGS-11805.72 Unspecified NONE
2372005-11-15 15:18PSTYes???USGS-11805.71 Unspecified NONE
2362005-11-15 15:15PSTYes???USGS-11105.69 Unspecified NONE
2352005-11-15 15:12PSTYes???USGS-11005.67 Unspecified NONE
2342005-11-15 15:09PSTYes???USGS-10905.65 Unspecified NONE
2332005-11-15 15:06PSTYes???USGS-10405.63 Unspecified NONE
2322005-11-15 15:03PSTYes???USGS-10505.61 Unspecified NONE
2312005-11-15 14:58PSTYes???USGS-10405.58 Unspecified NONE
2302005-11-15 14:55PSTYes???USGS-11005.57 Unspecified NONE
2292005-11-15 14:51PSTYes???USGS-9945.55 Unspecified NONE
2282005-11-15 14:48PSTYes???USGS-10505.53 Unspecified NONE
2272005-11-15 14:44PSTYes???USGS-9615.51 Unspecified NONE
2262005-11-15 14:41PSTYes???USGS-9715.49 Unspecified NONE
2252005-11-15 14:38PSTYes???USGS-9085.47 Unspecified NONE
2242005-11-15 14:35PSTYes???USGS-8845.45 Unspecified NONE
2232005-11-15 14:33PSTYes???USGS-8335.42 Unspecified NONE
2222005-11-15 14:29PSTYes???USGS-8165.39 Unspecified NONE
2212005-11-15 14:26PSTYes???USGS-7355.37 Unspecified NONE
2202005-11-15 14:23PSTYes???USGS-7165.34 Unspecified NONE
2192005-11-15 14:20PSTYes???USGS-7455.30 Unspecified NONE
2182005-11-15 14:17PSTYes???USGS-6895.28 Unspecified NONE
2172005-11-15 14:14PSTYes???USGS-6195.26 Unspecified NONE
2162005-11-15 14:11PSTYes???USGS-6435.24 Unspecified NONE
2152005-11-15 14:08PSTYes???USGS-5855.21 Unspecified NONE
2142005-11-15 14:04PSTYes???USGS-5335.19 Unspecified NONE
2132005-11-15 14:01PSTYes???USGS-4045.15 Unspecified NONE
2122005-11-15 13:57PSTYes???USGS-3655.13 Unspecified NONE
2112005-11-15 13:54PSTYes???USGS-2835.11 Unspecified NONE
2102005-11-15 13:51PSTYes???USGS-2335.08 Unspecified NONE
2092005-11-15 13:48PSTYes???USGS-1425.05 Unspecified NONE
2082005-11-15 13:45PSTYes???USGS-1045.02 Unspecified NONE
2072005-11-15 13:42PSTYes???USGS-86.05.00 Unspecified NONE
2062005-11-15 13:39PSTYes???USGS-6.004.98 Unspecified NONE
2052005-11-15 13:36PSTYes???USGS10.04.97 Unspecified NONE
2042005-11-15 13:33PSTYes???USGS44.04.94 Unspecified NONE
2032005-11-15 13:30PSTYes???USGS93.04.91 Unspecified NONE
2022005-11-15 13:27PSTYes???USGS1424.88 Unspecified NONE
2012005-11-15 13:23PSTYes???USGS1784.85 Unspecified NONE
2002005-11-15 13:20PSTYes???USGS2094.83 Unspecified NONE
1992005-11-15 13:17PSTYes???USGS2934.80 Unspecified NONE
1982005-11-15 13:13PSTYes???USGS3684.77 Unspecified NONE
1972005-11-15 13:10PSTYes???USGS4224.75 Unspecified NONE
1962005-11-15 13:06PSTYes???USGS4684.72 Unspecified NONE
1952005-11-15 13:03PSTYes???USGS5114.70 Unspecified NONE
1942005-11-15 13:00PSTYes???USGS5884.66 Unspecified NONE
1932005-11-15 12:57PSTYes???USGS6724.62 Unspecified NONE
1922005-11-15 12:53PSTYes???USGS7094.58 Unspecified NONE
1912005-11-15 12:50PSTYes???USGS7944.55 Unspecified NONE
1902005-11-15 12:46PSTYes???USGS8364.52 Unspecified NONE
1892005-11-15 12:43PSTYes???USGS8574.50 Unspecified NONE
1882005-11-15 12:40PSTYes???USGS8844.47 Unspecified NONE
1872005-11-15 12:37PSTYes???USGS9044.44 Unspecified NONE
1862005-11-15 12:34PSTYes???USGS9694.41 Unspecified NONE
1852005-11-15 12:31PSTYes???USGS10404.37 Unspecified NONE
1842005-11-15 12:28PSTYes???USGS10604.34 Unspecified NONE
1832005-11-15 12:25PSTYes???USGS10604.31 Unspecified NONE
1822005-11-15 12:22PSTYes???USGS11504.27 Unspecified NONE
1812005-11-15 12:19PSTYes???USGS11504.24 Unspecified NONE
1802005-11-15 12:16PSTYes???USGS12204.20 Unspecified NONE
1792005-11-15 12:12PSTYes???USGS12604.17 Unspecified NONE
1782005-11-15 12:09PSTYes???USGS13104.13 Unspecified NONE
1772005-11-15 12:06PSTYes???USGS14204.10 Unspecified NONE
1762005-11-15 12:03PSTYes???USGS14504.06 Unspecified NONE
1752005-11-15 11:59PSTYes???USGS15604.01 Unspecified NONE
1742005-11-15 11:56PSTYes???USGS15703.97 Unspecified NONE
1732005-11-15 11:52PSTYes???USGS16603.92 Unspecified NONE
1722005-11-15 11:48PSTYes???USGS16603.88 Unspecified NONE
1712005-11-15 11:45PSTYes???USGS16603.84 Unspecified NONE
1702005-11-15 11:41PSTYes???USGS16503.81 Unspecified NONE
1692005-11-15 11:37PSTYes???USGS16703.77 Unspecified NONE
1682005-11-15 11:26PSTYes???USGS18803.65 Unspecified NONE
1672005-11-15 11:22PSTYes???USGS18503.61 Unspecified NONE
1662005-11-15 11:19PSTYes???USGS18803.58 Unspecified NONE
1652005-11-15 11:15PSTYes???USGS19703.54 Unspecified NONE
1642005-11-15 11:10PSTYes???USGS20703.49 Unspecified NONE
1632005-11-15 11:06PSTYes???USGS20903.45 Unspecified NONE
1622005-11-15 11:03PSTYes???USGS21203.41 Unspecified NONE
1612005-11-15 10:59PSTYes???USGS21203.37 Unspecified NONE
1602005-11-15 10:54PSTYes???USGS22603.33 Unspecified NONE
1592005-11-15 10:50PSTYes???USGS22803.29 Unspecified NONE
1582005-11-15 10:27PSTYes???USGS26003.17 Unspecified NONE
1572005-11-15 10:23PSTYes???USGS26003.15 Unspecified NONE
1562005-11-15 10:19PSTYes???USGS26003.14 Unspecified NONE
1552005-11-15 10:15PSTYes???USGS26503.13 Unspecified NONE
1542005-11-15 10:11PSTYes???USGS27403.12 Unspecified NONE
1532005-11-15 10:07PSTYes???USGS26903.12 Unspecified NONE
1522005-11-15 10:03PSTYes???USGS26803.12 Unspecified NONE
1512005-11-15 09:58PSTYes???USGS27603.12 Unspecified NONE
1502005-11-15 09:52PSTYes???USGS27503.13 Unspecified NONE
1492005-11-15 09:48PSTYes???USGS28003.14 Unspecified NONE
1482005-11-15 09:44PSTYes???USGS28403.15 Unspecified NONE
1472005-11-15 09:41PSTYes???USGS27603.16 Unspecified NONE
1462005-11-15 09:20PSTYes???USGS28803.22 Unspecified NONE
1452005-11-15 09:16PSTYes???USGS28603.23 Unspecified NONE
1442005-11-15 09:13PSTYes???USGS28403.25 Unspecified NONE
1432005-11-15 09:09PSTYes???USGS29103.26 Unspecified NONE
1422005-11-15 09:05PSTYes???USGS29503.28 Unspecified NONE
1412005-11-15 09:01PSTYes???USGS28403.29 Unspecified NONE
1402005-11-15 08:53PSTYes???USGS29403.34 Unspecified NONE
1392005-11-15 08:50PSTYes???USGS28703.35 Unspecified NONE
1382005-11-15 08:46PSTYes???USGS28603.37 Unspecified NONE
1372005-11-15 08:42PSTYes???USGS29003.39 Unspecified NONE
1362005-11-15 08:37PSTYes???USGS28903.42 Unspecified NONE
1352005-11-15 08:33PSTYes???USGS28803.44 Unspecified NONE
1342005-11-15 08:25PSTYes???USGS28403.48 Unspecified NONE
1332005-11-15 08:21PSTYes???USGS29203.51 Unspecified NONE
1322005-05-23 09:40PSTYes???USGS1140015.30 Unspecified NONE
1312005-05-23 09:36PSTYes???USGS1110015.32 Unspecified NONE
1302005-05-23 09:32PSTYes???USGS1140015.33 Unspecified NONE
1292005-05-23 09:27PSTYes???USGS1130015.34 Unspecified NONE
1282005-05-23 09:23PSTYes???USGS1120015.35 Unspecified NONE
1272005-05-23 09:20PSTYes???USGS1140015.37 Unspecified NONE
1262005-05-23 09:16PSTYes???USGS1140015.38 Unspecified NONE
1252004-12-01 13:05PSTYes???USGS214010.44 Unspecified NONE
1242004-12-01 13:00PSTYes???USGS214010.45 Unspecified NONE
1232004-12-01 12:56PSTYes???USGS215010.45 Unspecified NONE
1222004-12-01 12:51PSTYes???USGS217010.45 Unspecified NONE
1212004-12-01 12:47PSTYes???USGS211010.46 Unspecified NONE
1202004-12-01 12:37PSTYes???USGS216010.47 Unspecified NONE
1192004-12-01 12:32PSTYes???USGS212010.48 Unspecified NONE
1182004-12-01 12:11PSTYes???USGS207010.54 Unspecified NONE
1172004-12-01 12:07PSTYes???USGS202010.56 Unspecified NONE
1162004-12-01 12:02PSTYes???USGS198010.57 Unspecified NONE
1152004-12-01 11:58PSTYes???USGS199010.59 Unspecified NONE
1142004-12-01 11:54PSTYes???USGS195010.60 Unspecified NONE
1132004-12-01 11:50PSTYes???USGS192010.62 Unspecified NONE
1122004-12-01 11:16PSTYes???USGS146010.76 Unspecified NONE
1112004-12-01 11:12PSTYes???USGS138010.78 Unspecified NONE
1102004-12-01 11:08PSTYes???USGS135010.79 Unspecified NONE
1092004-12-01 11:01PSTYes???USGS119010.83 Unspecified NONE
1082004-12-01 10:57PSTYes???USGS116010.84 Unspecified NONE
1072004-12-01 10:53PSTYes???USGS106010.85 Unspecified NONE
1062004-12-01 10:50PSTYes???USGS102010.86 Unspecified NONE
1052004-12-01 10:47PSTYes???USGS89910.87 Unspecified NONE
1042004-12-01 10:43PSTYes???USGS80110.89 Unspecified NONE
1032004-12-01 10:40PSTYes???USGS73410.91 Unspecified NONE
1022004-12-01 10:34PSTYes???USGS63510.93 Unspecified NONE
1012004-12-01 10:31PSTYes???USGS54810.95 Unspecified NONE
1002004-12-01 10:25PSTYes???USGS40310.96 Unspecified NONE
992004-12-01 10:22PSTYes???USGS36710.97 Unspecified NONE
982004-12-01 10:18PSTYes???USGS30610.98 Unspecified NONE
972004-12-01 10:15PSTYes???USGS22710.98 Unspecified NONE
962004-12-01 10:12PSTYes???USGS22010.99 Unspecified NONE
952004-02-28 12:03PSTYes???USGS1030015.92 Unspecified NONE
942004-02-28 11:59PSTYes???USGS1030015.93 Unspecified NONE
932004-02-28 11:54PSTYes???USGS1020015.93 Unspecified NONE
922004-02-28 11:50PSTYes???USGS1020015.95 Unspecified NONE
912004-02-28 11:45PSTYes???USGS1010015.94 Unspecified NONE
902004-02-28 11:39PSTYes???USGS1000015.95 Unspecified NONE
892003-09-12 14:28PSTYes???USGS220010.13 Unspecified NONE
882003-09-12 14:25PSTYes???USGS233010.09 Unspecified NONE
872003-09-12 14:22PSTYes???USGS230010.05 Unspecified NONE
862003-09-12 14:19PSTYes???USGS236010.02 Unspecified NONE
852003-09-12 14:16PSTYes???USGS243010.00 Unspecified NONE
842003-09-12 14:13PSTYes???USGS23909.97 Unspecified NONE
832003-09-12 14:10PSTYes???USGS25309.93 Unspecified NONE
822003-09-12 14:04PSTYes???USGS25809.86 Unspecified NONE
812003-09-12 14:01PSTYes???USGS26009.84 Unspecified NONE
802003-09-12 13:58PSTYes???USGS26909.81 Unspecified NONE
792003-09-12 13:55PSTYes???USGS27709.77 Unspecified NONE
782003-09-12 13:51PSTYes???USGS26709.73 Unspecified NONE
772003-09-12 13:48PSTYes???USGS28509.69 Unspecified NONE
762003-09-12 13:45PSTYes???USGS28809.66 Unspecified NONE
752003-09-12 13:42PSTYes???USGS30009.63 Unspecified NONE
742003-09-12 13:32PSTYes???USGS29909.55 Unspecified NONE
732003-09-12 13:30PSTYes???USGS30909.53 Unspecified NONE
722003-09-12 13:27PSTYes???USGS32009.51 Unspecified NONE
712003-09-12 13:24PSTYes???USGS31909.49 Unspecified NONE
702003-09-12 13:22PSTYes???USGS32609.47 Unspecified NONE
692003-09-12 13:18PSTYes???USGS31909.45 Unspecified NONE
682003-09-12 13:15PSTYes???USGS32909.44 Unspecified NONE
672003-09-12 13:12PSTYes???USGS34709.43 Unspecified NONE
662003-09-12 13:09PSTYes???USGS34109.41 Unspecified NONE
652003-09-12 13:06PSTYes???USGS34009.40 Unspecified NONE
642003-09-12 13:03PSTYes???USGS34509.39 Unspecified NONE
632003-09-12 13:00PSTYes???USGS33909.38 Unspecified NONE
622003-09-12 12:57PSTYes???USGS34509.38 Unspecified NONE
612003-09-12 12:54PSTYes???USGS35709.37 Unspecified NONE
602003-09-12 12:51PSTYes???USGS34409.37 Unspecified NONE
592003-09-12 12:35PSTYes???USGS36109.37 Unspecified NONE
582003-09-12 12:32PSTYes???USGS36509.37 Unspecified NONE
572003-09-12 12:29PSTYes???USGS36409.37 Unspecified NONE
562003-09-12 12:26PSTYes???USGS37209.38 Unspecified NONE
552003-09-12 12:23PSTYes???USGS36409.39 Unspecified NONE
542003-09-12 12:21PSTYes???USGS38009.39 Unspecified NONE
532003-09-12 12:18PSTYes???USGS38309.40 Unspecified NONE
522003-09-12 12:13PSTYes???USGS38609.43 Unspecified NONE
512003-09-12 12:10PSTYes???USGS38209.44 Unspecified NONE
502003-09-12 11:40PSTYes???USGS39009.59 Unspecified NONE
492003-09-12 11:37PSTYes???USGS38709.60 Unspecified NONE
482003-09-12 11:32PSTYes???USGS37209.63 Unspecified NONE
472003-09-12 11:29PSTYes???USGS36909.65 Unspecified NONE
462003-09-12 11:27PSTYes???USGS38309.67 Unspecified NONE
452003-09-12 11:24PSTYes???USGS38209.68 Unspecified NONE
442003-09-12 11:18PSTYes???USGS38309.72 Unspecified NONE
432003-09-12 11:15PSTYes???USGS37809.73 Unspecified NONE
422003-09-12 11:13PSTYes???USGS37809.75 Unspecified NONE
412003-09-12 11:10PSTYes???USGS39309.77 Unspecified NONE
402003-09-12 10:32PSTYes???USGS38609.97 Unspecified NONE
392003-09-12 10:29PSTYes???USGS39109.99 Unspecified NONE
382003-09-12 10:26PSTYes???USGS381010.01 Unspecified NONE
372003-09-12 10:23PSTYes???USGS367010.03 Unspecified NONE
362003-09-12 09:58PSTYes???USGS363010.19 Unspecified NONE
352003-09-12 09:54PSTYes???USGS370010.22 Unspecified NONE
342003-09-12 09:52PSTYes???USGS366010.27 Unspecified NONE
332003-09-12 09:44PSTYes???USGS369010.33 Unspecified NONE
322003-09-12 09:41PSTYes???USGS365010.36 Unspecified NONE
312003-09-12 09:39PSTYes???USGS369010.38 Unspecified NONE
302003-09-12 08:56PSTYes???USGS335010.69 Unspecified NONE
292003-09-12 08:53PSTYes???USGS336010.71 Unspecified NONE
282003-09-12 08:51PSTYes???USGS336010.73 Unspecified NONE
272003-09-12 08:47PSTYes???USGS329010.76 Unspecified NONE
262003-09-12 08:42PSTYes???USGS323010.79 Unspecified NONE
252003-09-12 08:39PSTYes???USGS324010.82 Unspecified NONE
242003-09-12 08:36PSTYes???USGS342010.85 Unspecified NONE
232003-09-12 08:32PSTYes???USGS333010.87 Unspecified NONE
222003-09-12 08:18PSTYes???USGS311010.98 Unspecified NONE
212003-09-12 08:14PSTYes???USGS307011.00 Unspecified NONE
202003-09-12 08:11PSTYes???USGS314011.03 Unspecified NONE
192003-09-12 08:07PSTYes???USGS303011.05 Unspecified NONE
182003-09-12 07:57PSTYes???USGS281011.14 Unspecified NONE
172003-09-12 07:53PSTYes???USGS294011.16 Unspecified NONE
162003-09-12 07:50PSTYes???USGS280011.18 Unspecified NONE
152003-09-12 07:46PSTYes???USGS283011.21 Unspecified NONE
142003-09-12 07:41PSTYes???USGS269011.25 Unspecified NONE
132003-09-12 07:38PSTYes???USGS267011.28 Unspecified NONE
122003-09-12 07:33PSTYes???USGS252011.32 Unspecified NONE
112003-09-12 07:29PSTYes???USGS255011.34 Unspecified NONE
102003-09-12 07:22PSTYes???USGS236011.40 Unspecified NONE
92003-09-12 07:18PSTYes???USGS231011.43 Unspecified NONE
82003-09-12 07:11PSTYes???USGS223011.48 Unspecified NONE
72003-09-12 07:07PSTYes???USGS216011.51 Unspecified NONE
62003-09-12 06:53PSTYes???USGS185011.61 Unspecified NONE
52003-09-12 06:50PSTYes???USGS190011.62 Unspecified NONE
42003-09-12 06:48PSTYes???USGS184011.64 Unspecified NONE
32003-09-12 06:42PSTYes???USGS179011.68 Unspecified NONE
22003-09-12 06:39PSTYes???USGS174011.70 Unspecified NONE
12003-09-12 06:35PSTYes???USGS161011.73 Unspecified NONE